                ,  0.194,  0.291,  0.388,  0.485,  0.582,  0.679,  0.776,  0.873,  0.970,  1.067,  1.164,  1.261,  1.358,  1.455,  1.552,  1.650,  1.747,  1.844,  1.941,  2.038,  2.135,  2.232,  2.329,  2.426,  2.523,  2.620,  2.717,  2.814,  2.911,  3.008,  3.105,  3.202,  3.299,  3.396,  3.493,  3.590,  3.687,  3.784,  3.881,  3.978,  4.075,  4.172,  4.269,  4.366,  4.463,  4.560,  4.657,  4.754,  4.851,  4.949,  5.046,  5.143,  5.240,  5.337,  5.434,  5.531,  5.628,  5.725,  5.822,  5.919,  6.016,  6.113,  6.210,  6.307,  6.404,  6.501,  6.598,  6.695,  6.792,  6.889,  6.986,  7.083,  7.180,  7.277,  7.374,  7.471,  7.568,  7.665,  7.762
2007/11/09 00:00,    1.6,    0.8,    0.3,    0.2,    0.5,    0.9,  999.0,    0.7,    0.1,    0.5,    0.6,    1.1,    2.7,    2.2,    1.9,    2.1,    2.1,    2.0,    1.4,    0.4,    0.6,  999.0,  999.0,  999.0,  999.0,  999.0,    0.7,   -0.5,   -0.3,   -0.6,  999.0,  999.0,   -0.8,   -1.7,   -2.1,   -2.9,  999.0,   -4.9,   -4.5,   -4.5,   -4.4,   -4.5,   -5.4,   -6.4,   -6.4,   -6.0,   -4.6,   -4.3,   -4.3,   -4.8,  999.0,  999.0,  999.0,  999.0,  999.0,   -1.1,   -0.7,   -1.0,  999.0,  999.0,  999.0,  999.0,  999.0,  999.0,  999.0,  999.0,  999.0,  999.0,  999.0,  999.0,  999.0,  999.0,  999.0,  999.0,  999.0,  999.0,  999.0,  999.0,  999.0
2007/11/09 00:10,    1.1,    0.8,    0.0,    0.1,    0.7,    0.4,  999.0,    0.7,    0.7,    1.3,    1.4,    2.4,    2.7,    2.6,    2.0,    2.2,    1.9,    2.2,    2.3,  999.0,  999.0,    0.7,  999.0,    2.5,  999.0,    1.6,    0.4,   -0.5,   -0.6,   -0.8,   -0.9,   -1.2,   -2.2,   -2.2,   -2.6,   -3.4,   -4.8,   -5.6,   -4.5,   -4.7,   -4.6,   -5.4,   -5.8,   -6.2,   -6.5,  999.0,   -4.7,   -4.4,   -5.3,   -4.2,  999.0,  999.0,  999.0,  999.0,  999.0,  999.0,   -0.2,   -0.2,   -0.2,   -1.5,  999.0,  999.0,  999.0,  999.0,  999.0,  999.0,  999.0,  999.0,  999.0,  999.0,  999.0,  999.0,  999.0,  999.0,  999.0,  999.0,  999.0,  999.0,  999.0
2007/11/09 00:20,    0.4,    0.4,    0.3,    0.5,    0.9,    0.6,    0.5,    1.1,    1.1,    1.2,    1.3,    1.8,    2.9,    3.1,    2.1,    2.0,    2.1,    1.9,    2.4,    1.1,    0.5,  999.0,  999.0,  999.0,  999.0,    2.2,    0.8,   -0.1,   -0.1,   -0.3,   -0.9,   -0.8,   -2.0,   -2.7,   -2.8,   -4.0,   -5.2,   -5.9,   -5.1,   -4.9,   -4.9,   -5.8,   -6.1,  999.0,  999.0,   -5.5,   -5.4,   -5.1,  999.0,  999.0,  999.0,  999.0,  999.0,  999.0,  999.0,  999.0,  999.0,  999.0,  999.0,   -1.7,   -1.2,  999.0,  999.0,  999.0,  999.0,  999.0,  999.0,  999.0,  999.0,  999.0,  999.0,  999.0,  999.0,  999.0,  999.0,  999.0,  999.0,  999.0,  999.0
2007/11/09 00:30,    0.2,    0.3,    0.3,    0.5,    1.5,    0.5,    0.4,    0.8,    1.8,    2.1,    0.8,    1.3,    1.8,    3.4,    3.3,    2.0,    2.2,    2.1,    2.6,    3.1,    0.9,  999.0,  999.0,  999.0,  999.0,  999.0,    1.2,    0.2,    0.1,   -0.1,   -0.7,  999.0,   -1.7,   -2.3,   -2.6,   -3.0,   -4.3,   -5.0,   -5.1,   -4.4,   -4.8,   -5.7,  999.0,  999.0,  999.0,   -6.8,  999.0,   -5.4,  999.0,  999.0,  999.0,  999.0,  999.0,  999.0,  999.0,  999.0,  999.0,  999.0,  999.0,  999.0,  999.0,  999.0,  999.0,  999.0,  999.0,  999.0,  999.0,  999.0,  999.0,  999.0,  999.0,  999.0,  999.0,  999.0,  999.0,  999.0,  999.0,  999.0,  999.0
2007/11/09 00:40,    0.3,    0.2,    0.1,    0.0,    1.3,    0.7,    0.3,    1.1,  999.0,    2.1,    2.2,    1.8,    1.6,    3.0,    3.4,    2.7,    2.5,    2.2,    2.4,    2.7,  999.0,  999.0,    1.2,  999.0,  999.0,    2.3,    1.1,    0.2,   -0.0,   -0.1,  999.0,   -0.1,   -2.3,   -3.3,   -4.2,  999.0,   -3.4,   -4.4,   -5.0,   -4.1,   -4.6,   -5.3,   -6.3,  999.0,  999.0,   -7.3,   -5.5,   -6.2,   -5.6,   -5.6,  999.0,  999.0,  999.0,  999.0,  999.0,  999.0,  999.0,  999.0,  999.0,  999.0,  999.0,  999.0,  999.0,  999.0,  999.0,  999.0,  999.0,  999.0,  999.0,  999.0,  999.0,  999.0,  999.0,  999.0,  999.0,  999.0,  999.0,  999.0,  999.0
2007/11/09 00:50,   -0.1,    0.2,    0.4,   -0.2,    0.7,    0.3,    0.4,    1.5,    2.5,    3.6,    3.6,    3.0,    2.5,    2.7,    3.1,    2.8,    2.1,    1.7,    1.8,    2.2,  999.0,  999.0,  999.0,    1.5,  999.0,    2.3,    1.6,    0.1,    0.0,   -0.2,  999.0,   -0.7,   -2.8,   -4.1,   -4.2,   -3.0,   -3.4,   -3.9,   -4.0,   -4.3,   -5.0,   -6.1,   -7.7,  999.0,  999.0,  999.0,   -6.1,   -5.8,   -5.6,   -4.8,   -4.6,  999.0,  999.0,   -2.6,  999.0,  999.0,  999.0,  999.0,  999.0,  999.0,  999.0,   -0.8,  999.0,  999.0,  999.0,  999.0,  999.0,  999.0,  999.0,  999.0,  999.0,  999.0,  999.0,  999.0,  999.0,  999.0,  999.0,  999.0,  999.0
2007/11/09 01:00,    0.1,   -0.1,    0.3,  999.0,  999.0,    0.5,   -0.1,    2.6,    3.3,    4.7,    4.2,    3.7,    2.8,    3.1,    3.2,    2.9,    2.5,    1.9,    1.7,    2.2,    2.4,  999.0,    1.0,    1.6,  999.0,    2.4,    1.9,    0.2,    0.0,   -0.1,  999.0,   -0.9,   -2.5,   -4.2,   -2.8,   -3.0,   -3.3,   -3.8,   -4.0,   -5.0,   -6.3,   -7.3,  999.0,  999.0,  999.0,  999.0,  999.0,  999.0,  999.0,  999.0,  999.0,  999.0,  999.0,  999.0,  999.0,  999.0,  999.0,   -2.1,  999.0,  999.0,  999.0,  999.0,  999.0,  999.0,  999.0,  999.0,  999.0,  999.0,  999.0,  999.0,  999.0,  999.0,  999.0,  999.0,  999.0,  999.0,  999.0,  999.0,  999.0
2007/11/09 01:10,    0.9,    0.6,   -0.0,    0.5,    1.3,    1.2,    0.7,    3.1,    3.6,    3.7,    3.3,    3.8,    3.3,    3.5,    3.4,    2.9,    3.1,    2.4,    1.9,    2.2,  999.0,  999.0,    0.9,    1.6,    2.8,    2.3,    2.6,    0.4,    0.0,   -0.2,    0.0,   -0.4,   -1.8,   -3.8,   -3.2,   -2.7,   -3.1,   -3.4,   -3.8,   -5.3,   -6.5,  999.0,  999.0,   -7.8,  999.0,  999.0,  999.0,   -5.3,  999.0,  999.0,  999.0,  999.0,  999.0,  999.0,  999.0,  999.0,  999.0,  999.0,  999.0,  999.0,  999.0,  999.0,  999.0,  999.0,  999.0,  999.0,  999.0,  999.0,  999.0,  999.0,  999.0,  999.0,  999.0,  999.0,  999.0,  999.0,  999.0,  999.0,  999.0
2007/11/09 01:20,   -0.4,   -0.2,   -0.1,    0.7,  999.0,    1.7,    1.0,    3.5,    3.6,    3.4,    2.5,    2.9,    3.1,    2.9,    2.7,    2.0,    2.8,    2.2,    1.8,    2.1,    2.5,  999.0,  999.0,  999.0,    2.7,  999.0,    2.6,    1.3,   -0.1,    0.0,  999.0,    0.0,   -1.6,   -2.7,   -3.1,   -2.6,   -2.7,   -3.0,   -4.1,   -5.1,   -6.0,  999.0,   -7.0,  999.0,  999.0,  999.0,   -6.8,   -6.7,   -5.8,  999.0,  999.0,  999.0,  999.0,  999.0,  999.0,  999.0,  999.0,  999.0,  999.0,  999.0,  999.0,  999.0,  999.0,  999.0,  999.0,  999.0,  999.0,  999.0,  999.0,  999.0,  999.0,  999.0,  999.0,  999.0,  999.0,  999.0,  999.0,  999.0,  999.0
2007/11/09 01:30,   -0.4,    0.4,    0.6,    0.1,  999.0,    1.3,    0.4,    2.9,    3.0,    3.0,    2.8,    2.3,    2.5,    2.4,    2.4,    2.9,    2.7,    2.6,    2.3,    2.3,    2.0,  999.0,  999.0,    2.6,    2.8,  999.0,    3.0,    0.8,   -0.0,   -0.1,  999.0,  999.0,  999.0,  999.0,  999.0,  999.0,   -2.5,   -2.9,   -3.7,   -4.4,   -5.7,   -7.2,   -6.4,  999.0,  999.0,   -5.8,   -6.1,  999.0,  999.0,  999.0,  999.0,  999.0,  999.0,  999.0,  999.0,   -2.3,  999.0,   -0.2,  999.0,  999.0,  999.0,  999.0,  999.0,  999.0,  999.0,  999.0,  999.0,  999.0,  999.0,  999.0,  999.0,  999.0,  999.0,  999.0,  999.0,  999.0,  999.0,  999.0,  999.0
2007/11/09 01:40,   -0.1,    0.4,   -0.1,    1.1,    1.7,    0.8,    0.6,    0.9,    3.1,    3.0,    2.9,    2.4,    2.2,    2.3,    2.3,    2.6,    2.2,    1.9,    2.0,    2.0,    1.6,  999.0,  999.0,    2.2,  999.0,    2.4,  999.0,   -0.0,    0.1,    0.1,  999.0,  999.0,  999.0,  999.0,  999.0,   -1.8,   -2.2,   -2.4,   -2.9,   -3.5,   -5.0,   -6.0,   -5.6,  999.0,  999.0,  999.0,  999.0,  999.0,  999.0,  999.0,  999.0,  999.0,  999.0,  999.0,  999.0,  999.0,   -1.5,   -0.7,   -1.3,   -2.2,   -2.8,  999.0,  999.0,  999.0,  999.0,  999.0,  999.0,  999.0,  999.0,  999.0,  999.0,  999.0,  999.0,  999.0,  999.0,  999.0,  999.0,  999.0,  999.0
2007/11/09 01:50,  999.0,    1.4,    0.5,    2.0,    1.7,    0.9,    0.3,    1.6,    2.9,    2.7,  999.0,    2.1,    2.2,    2.1,    2.4,    2.3,    1.7,    2.0,    1.9,    1.5,  999.0,  999.0,    2.2,    3.1,  999.0,  999.0,  999.0,    0.0,   -0.1,    0.1,  999.0,  999.0,  999.0,  999.0,  999.0,  999.0,   -2.0,   -3.2,   -3.2,   -3.5,   -4.1,   -5.4,  999.0,  999.0,  999.0,  999.0,  999.0,  999.0,  999.0,  999.0,  999.0,  999.0,  999.0,  999.0,  999.0,  999.0,   -2.0,   -1.3,   -1.7,   -2.5,   -3.0,  999.0,  999.0,  999.0,  999.0,  999.0,  999.0,  999.0,  999.0,  999.0,  999.0,  999.0,  999.0,  999.0,  999.0,  999.0,  999.0,  999.0,  999.0
2007/11/09 02:00,  999.0,  999.0,  999.0,    2.6,    3.3,    1.1,    0.2,    2.0,    2.0,    1.7,    1.1,    2.3,    3.1,    2.6,    3.2,    2.2,    1.8,    2.0,    1.3,  999.0,  999.0,    2.1,    2.5,    3.0,    3.6,  999.0,  999.0,    0.2,    0.1,    0.0,  999.0,    0.1,   -1.4,  999.0,   -2.8,   -2.2,   -2.0,   -1.8,   -2.7,   -3.0,   -4.0,   -4.8,   -5.4,  999.0,  999.0,  999.0,   -5.6,   -6.1,   -6.0,   -6.0,   -6.8,   -6.1,  999.0,  999.0,  999.0,  999.0,   -2.1,   -1.4,   -1.1,   -1.8,   -2.2,  999.0,  999.0,  999.0,  999.0,  999.0,  999.0,  999.0,  999.0,  999.0,  999.0,  999.0,  999.0,  999.0,  999.0,  999.0,  999.0,  999.0,  999.0
2007/11/09 02:10,  999.0,    2.7,    1.8,  999.0,  999.0,    2.5,    0.6,    3.2,    3.4,    2.7,    2.8,    2.6,    3.3,    2.9,    3.1,    2.8,    1.9,    2.1,    2.3,    2.2,  999.0,    1.9,    2.2,    3.1,    3.3,  999.0,  999.0,  999.0,  999.0,  999.0,  999.0,  999.0,   -1.2,  999.0,   -2.3,   -3.6,   -1.9,   -2.4,   -3.0,   -3.7,   -4.9,   -5.5,   -6.0,  999.0,  999.0,  999.0,  999.0,   -6.2,   -6.6,   -6.0,   -6.0,   -6.0,  999.0,  999.0,  999.0,   -2.2,   -2.2,   -1.2,   -1.7,   -2.4,  999.0,  999.0,  999.0,  999.0,  999.0,  999.0,  999.0,  999.0,  999.0,  999.0,  999.0,  999.0,  999.0,  999.0,  999.0,  999.0,  999.0,  999.0,  999.0
2007/11/09 02:20,  999.0,    1.3,    2.5,  999.0,  999.0,  999.0,    1.7,    3.3,    2.9,    2.6,    3.0,    3.2,    3.6,    3.8,    3.5,    3.3,    2.4,    1.9,    2.0,    1.8,    1.4,    1.7,    2.3,    3.0,    3.5,  999.0,  999.0,  999.0,  999.0,  999.0,  999.0,    0.0,   -0.4,   -1.9,  999.0,  999.0,   -2.7,   -3.1,   -3.7,   -4.5,   -5.4,   -6.1,   -6.1,   -6.6,  999.0,  999.0,  999.0,   -5.8,   -6.6,   -5.6,   -6.1,   -5.8,  999.0,  999.0,  999.0,   -1.8,   -1.9,  999.0,  999.0,  999.0,  999.0,  999.0,  999.0,  999.0,  999.0,  999.0,  999.0,  999.0,  999.0,  999.0,  999.0,  999.0,  999.0,  999.0,  999.0,  999.0,  999.0,  999.0,  999.0
2007/11/09 02:30,  999.0,    2.6,    2.0,    1.3,  999.0,    3.2,    2.5,    3.3,    3.0,    2.9,    2.8,    3.1,    3.9,    4.0,    3.8,    3.2,    3.1,    2.2,    2.2,    1.9,    1.8,    1.3,    2.5,    2.8,    3.5,    3.5,  999.0,    2.2,  999.0,  999.0,  999.0,    0.8,   -0.1,  999.0,  999.0,   -3.5,   -3.1,   -3.3,   -4.2,   -5.4,   -6.2,  999.0,  999.0,  999.0,  999.0,  999.0,  999.0,   -5.5,  999.0,  999.0,   -7.2,   -7.8,   -5.9,  999.0,  999.0,   -2.4,   -2.0,   -2.1,  999.0,  999.0,  999.0,   -1.3,  999.0,  999.0,  999.0,  999.0,  999.0,  999.0,  999.0,  999.0,  999.0,  999.0,  999.0,  999.0,  999.0,  999.0,  999.0,  999.0,  999.0
2007/11/09 02:40,  999.0,    1.1,    0.5,    1.0,    3.4,    2.0,    1.4,    1.5,    2.4,    2.7,    3.1,    3.6,    3.5,    3.5,    3.2,    3.0,    2.6,    2.5,    2.5,    1.9,    1.6,    1.6,  999.0,    3.0,    3.6,    3.3,    3.8,    2.4,    0.5,    0.7,    1.2,    1.1,   -0.9,  999.0,  999.0,   -3.3,   -3.1,   -3.0,   -3.8,   -5.0,   -5.8,  999.0,   -6.5,  999.0,  999.0,  999.0,  999.0,   -5.3,   -5.6,   -6.0,   -6.4,   -7.0,   -7.7,  999.0,  999.0,  999.0,   -1.3,  999.0,  999.0,  999.0,  999.0,  999.0,  999.0,  999.0,  999.0,  999.0,  999.0,  999.0,  999.0,  999.0,  999.0,  999.0,  999.0,  999.0,  999.0,  999.0,  999.0,  999.0,  999.0
2007/11/09 02:50,    0.2,    0.2,    0.2,    1.3,    1.4,    1.6,    0.2,    1.0,    2.6,  999.0,    2.5,    3.0,    3.4,    2.6,    2.7,    2.7,    2.6,    2.7,    2.0,    1.6,    1.2,    1.2,    2.5,    3.6,    4.2,    3.3,  999.0,    1.6,    1.2,    0.4,  999.0,  999.0,  999.0,  999.0,  999.0,   -3.5,   -3.3,   -2.8,   -4.0,   -4.7,   -5.5,   -6.2,  999.0,  999.0,   -4.4,   -4.6,   -5.2,   -5.5,   -5.9,   -6.5,   -6.3,   -6.5,   -6.1,  999.0,  999.0,  999.0,  999.0,  999.0,  999.0,  999.0,  999.0,  999.0,  999.0,   -3.2,  999.0,  999.0,  999.0,  999.0,  999.0,  999.0,  999.0,  999.0,  999.0,  999.0,  999.0,  999.0,  999.0,  999.0,  999.0
2007/11/09 03:00,    0.2,    0.9,    1.0,    1.1,  999.0,    0.9,    0.6,    1.9,    2.7,    3.8,    3.2,    3.2,    3.0,    2.8,    2.4,    3.2,    3.0,    2.4,    2.0,    1.8,    1.4,    1.7,    2.3,    3.6,    3.5,    3.5,    2.5,    1.9,    0.5,    0.1,  999.0,  999.0,  999.0,  999.0,  999.0,   -3.0,   -3.3,   -3.0,   -3.8,   -4.5,   -5.2,  999.0,  999.0,  999.0,   -3.9,   -4.6,   -4.4,   -5.8,  999.0,  999.0,   -5.7,   -5.6,  999.0,  999.0,  999.0,  999.0,  999.0,  999.0,  999.0,  999.0,  999.0,  999.0,  999.0,  999.0,  999.0,  999.0,  999.0,  999.0,  999.0,  999.0,  999.0,  999.0,  999.0,  999.0,  999.0,  999.0,  999.0,  999.0,  999.0
2007/11/09 03:10,  999.0,    1.4,    0.8,    0.7,    0.8,    0.7,    0.6,    0.3,  999.0,    2.1,    2.5,    2.9,    3.5,    2.3,    3.0,    2.8,    2.7,    2.2,    2.2,    2.2,    1.6,    2.0,    2.6,    3.6,    3.8,    3.3,    1.5,    1.7,  999.0,    1.4,  999.0,  999.0,  999.0,  999.0,   -2.9,   -3.2,   -3.0,   -3.1,   -3.8,   -4.7,   -5.3,  999.0,  999.0,  999.0,   -3.8,   -4.2,   -5.4,  999.0,  999.0,  999.0,   -5.6,  999.0,  999.0,  999.0,  999.0,  999.0,  999.0,  999.0,  999.0,  999.0,  999.0,  999.0,  999.0,  999.0,  999.0,  999.0,  999.0,  999.0,  999.0,  999.0,  999.0,  999.0,  999.0,  999.0,  999.0,  999.0,  999.0,  999.0,  999.0
2007/11/09 03:20,    0.3,    1.1,    0.9,    0.7,    1.6,    0.2,    0.2,    1.4,    1.6,    2.2,    3.0,    3.2,    3.9,    3.2,    3.1,    2.6,    2.0,    2.7,    2.1,    2.4,    1.9,  999.0,    2.6,    4.1,    4.0,    3.5,  999.0,    1.4,    1.5,    1.2,  999.0,  999.0,  999.0,  999.0,   -2.8,   -3.0,   -2.6,   -3.2,   -3.8,   -4.6,  999.0,  999.0,  999.0,  999.0,  999.0,  999.0,  999.0,  999.0,  999.0,  999.0,   -4.9,   -5.1,  999.0,  999.0,  999.0,  999.0,  999.0,  999.0,  999.0,  999.0,  999.0,  999.0,   -1.9,  999.0,  999.0,  999.0,  999.0,  999.0,  999.0,  999.0,  999.0,  999.0,  999.0,  999.0,  999.0,  999.0,  999.0,  999.0,  999.0
2007/11/09 03:30,    0.5,    1.4,    0.7,    0.4,    1.8,    0.1,   -0.0,    0.8,    1.6,    3.0,    3.2,    4.1,    4.4,    3.5,    3.4,    3.6,    3.6,    2.9,  999.0,    2.5,    2.9,    2.5,    3.3,    4.2,    4.3,    3.6,    2.0,    1.1,    1.9,    1.5,  999.0,  999.0,  999.0,   -2.3,   -2.9,   -3.2,   -2.9,   -3.5,   -4.3,  999.0,  999.0,  999.0,  999.0,  999.0,   -4.3,  999.0,   -5.6,  999.0,  999.0,  999.0,   -5.4,   -5.8,  999.0,  999.0,  999.0,  999.0,  999.0,  999.0,  999.0,  999.0,  999.0,  999.0,  999.0,  999.0,  999.0,  999.0,  999.0,  999.0,  999.0,  999.0,  999.0,  999.0,  999.0,  999.0,  999.0,  999.0,  999.0,  999.0,  999.0
2007/11/09 03:40,    0.9,    1.8,    1.0,    1.0,    1.6,    0.8,   -0.0,    0.8,    2.2,    2.8,    3.2,    3.7,    4.3,    4.1,    3.9,    3.2,    3.6,    2.9,    2.1,    2.3,    2.7,    2.9,    2.8,    3.9,    3.4,  999.0,    1.9,    1.6,    1.8,    1.9,  999.0,  999.0,  999.0,  999.0,   -2.2,   -2.6,   -2.8,   -3.2,   -4.7,   -5.2,  999.0,  999.0,  999.0,   -4.6,  999.0,  999.0,  999.0,  999.0,  999.0,   -5.7,   -6.6,   -6.9,   -6.2,  999.0,  999.0,  999.0,  999.0,  999.0,  999.0,  999.0,  999.0,  999.0,  999.0,  999.0,  999.0,  999.0,  999.0,  999.0,  999.0,  999.0,  999.0,  999.0,  999.0,  999.0,  999.0,  999.0,  999.0,  999.0,  999.0
2007/11/09 03:50,  999.0,    1.1,    1.1,    3.1,  999.0,    0.9,    0.3,    1.4,    2.0,    2.7,    2.5,    2.6,    3.5,    4.4,    4.4,    3.7,    3.5,    3.3,  999.0,    1.8,    2.4,    2.6,  999.0,    3.2,    2.8,    2.4,    1.1,    0.9,    1.3,    0.7,  999.0,  999.0,  999.0,   -2.5,   -2.6,   -2.8,   -3.1,   -3.7,   -4.3,   -4.8,   -4.8,   -4.4,  999.0,  999.0,  999.0,  999.0,   -5.5,   -5.9,  999.0,   -6.2,   -5.7,   -5.8,   -4.7,  999.0,  999.0,  999.0,  999.0,    0.2,  999.0,  999.0,  999.0,  999.0,  999.0,  999.0,  999.0,  999.0,  999.0,  999.0,  999.0,  999.0,  999.0,  999.0,  999.0,  999.0,  999.0,  999.0,  999.0,  999.0,  999.0
2007/11/09 04:00,    0.2,  999.0,  999.0,    2.6,    2.2,    0.1,    0.4,    1.2,    1.7,    2.5,    2.6,    3.3,    3.2,    3.7,    3.7,    3.6,    3.4,    3.1,  999.0,    2.1,    2.0,  999.0,  999.0,    3.2,  999.0,    2.7,    1.5,    1.1,    1.1,    0.9,  999.0,  999.0,  999.0,  999.0,   -2.7,   -3.1,   -3.2,   -4.1,   -4.6,   -4.9,   -4.8,   -4.4,  999.0,  999.0,  999.0,  999.0,   -4.6,   -5.6,  999.0,  999.0,  999.0,  999.0,   -5.1,  999.0,  999.0,   -2.0,  999.0,  999.0,  999.0,  999.0,  999.0,  999.0,  999.0,  999.0,  999.0,  999.0,  999.0,  999.0,  999.0,  999.0,  999.0,  999.0,  999.0,  999.0,  999.0,  999.0,  999.0,  999.0,  999.0
2007/11/09 04:10,    1.3,    0.8,    0.4,    1.1,    1.1,    0.2,   -0.0,    0.8,    0.8,    2.7,    3.5,    3.2,  999.0,    3.4,    3.8,    3.7,    4.2,  999.0,  999.0,    1.7,    2.1,  999.0,  999.0,    3.6,    3.3,  999.0,  999.0,    1.2,    1.1,    1.1,  999.0,  999.0,  999.0,  999.0,   -2.8,   -3.1,   -3.3,   -3.9,   -4.5,   -4.6,   -4.9,   -5.4,   -4.8,   -5.7,  999.0,  999.0,   -5.6,   -6.2,   -6.2,   -5.7,  999.0,  999.0,  999.0,  999.0,  999.0,  999.0,   -1.4,  999.0,  999.0,  999.0,  999.0,  999.0,  999.0,  999.0,  999.0,  999.0,  999.0,  999.0,  999.0,  999.0,  999.0,  999.0,  999.0,  999.0,  999.0,  999.0,  999.0,  999.0,  999.0
2007/11/09 04:20,    0.6,    0.4,    0.2,    0.4,    0.9,    0.3,  999.0,    0.9,    1.3,    3.7,    3.9,    3.6,    3.2,    3.6,    3.7,    3.5,    3.6,    3.5,    2.6,    2.1,    2.0,  999.0,  999.0,  999.0,    3.1,    3.4,    1.5,    0.8,  999.0,    1.0,  999.0,   -0.5,   -2.0,   -2.2,   -2.8,   -3.2,   -3.8,   -4.0,   -4.2,   -4.5,   -4.4,   -4.6,  999.0,   -4.4,   -4.8,  999.0,   -4.3,   -4.8,   -4.5,   -4.9,   -5.0,   -6.0,  999.0,  999.0,  999.0,   -0.9,  999.0,  999.0,  999.0,  999.0,  999.0,  999.0,  999.0,  999.0,  999.0,  999.0,  999.0,  999.0,  999.0,  999.0,  999.0,  999.0,  999.0,  999.0,  999.0,  999.0,  999.0,  999.0,  999.0
2007/11/09 04:30,    2.0,    0.2,    0.1,    0.3,    2.7,    0.0,   -0.0,    0.8,    1.6,    3.9,    4.2,    4.2,    3.4,    3.4,    3.7,    3.3,    3.6,    3.6,    2.8,    2.2,    1.9,    2.3,    3.0,  999.0,    3.3,    3.4,  999.0,    0.8,    1.2,    1.5,    0.9,  999.0,  999.0,   -1.7,   -2.2,   -2.7,   -3.1,   -3.4,   -3.7,   -3.5,   -4.2,  999.0,  999.0,  999.0,  999.0,   -4.2,   -4.9,   -4.6,   -4.2,   -4.5,   -5.0,   -4.9,   -4.0,  999.0,   -1.4,   -1.3,  999.0,  999.0,  999.0,  999.0,  999.0,  999.0,  999.0,  999.0,  999.0,  999.0,  999.0,  999.0,  999.0,  999.0,  999.0,  999.0,  999.0,  999.0,  999.0,  999.0,  999.0,  999.0,  999.0
2007/11/09 04:40,    1.1,    0.3,    0.1,    0.4,    2.8,    0.1,  999.0,    0.7,    1.3,    2.6,    3.0,    3.4,    3.4,    3.6,    3.3,    3.5,    3.6,    3.9,    3.6,    3.3,    2.1,    2.3,    3.1,    3.0,    3.8,    3.4,  999.0,    0.8,    1.4,    0.9,  999.0,  999.0,  999.0,   -1.8,   -2.4,   -2.5,   -3.4,   -4.1,   -4.1,   -3.5,   -4.3,   -4.8,   -5.1,  999.0,   -4.9,   -4.8,  999.0,  999.0,  999.0,   -4.7,   -5.5,   -5.6,   -5.1,  999.0,  999.0,   -2.0,  999.0,  999.0,  999.0,  999.0,  999.0,  999.0,  999.0,  999.0,  999.0,  999.0,  999.0,  999.0,  999.0,  999.0,  999.0,  999.0,  999.0,  999.0,  999.0,  999.0,  999.0,  999.0,  999.0
2007/11/09 04:50,    1.2,    0.9,    0.3,    0.9,    2.3,    0.4,    0.5,    0.9,    1.5,    1.2,    2.8,    3.0,    3.4,    3.4,    3.8,    4.3,    3.7,    3.8,    3.7,    3.7,    3.1,    2.0,    2.5,  999.0,    3.5,    3.2,  999.0,    0.7,    0.8,    0.6,    1.1,    0.2,   -1.5,   -1.7,   -2.3,   -2.6,  999.0,   -4.6,  999.0,  999.0,   -4.7,   -5.4,  999.0,  999.0,  999.0,   -5.6,  999.0,  999.0,  999.0,   -4.9,   -5.1,  999.0,   -5.1,   -4.5,  999.0,   -1.9,   -1.2,  999.0,  999.0,  999.0,  999.0,  999.0,  999.0,  999.0,  999.0,  999.0,  999.0,  999.0,  999.0,  999.0,  999.0,  999.0,  999.0,  999.0,  999.0,  999.0,  999.0,  999.0,  999.0
2007/11/09 05:00,    0.2,    0.9,    0.8,    1.1,    2.2,    1.0,    0.9,    2.1,    4.2,    4.2,    3.2,    2.8,    2.4,    3.3,    3.4,    3.5,    3.3,    3.6,    3.6,    3.5,    3.2,    1.9,    2.5,  999.0,  999.0,  999.0,    2.7,    0.8,    0.9,    0.8,    1.1,    1.0,  999.0,  999.0,   -1.8,  999.0,  999.0,   -3.8,  999.0,  999.0,   -4.2,   -5.2,  999.0,  999.0,  999.0,  999.0,  999.0,  999.0,  999.0,   -4.2,   -4.6,   -4.2,   -4.7,  999.0,  999.0,   -1.7,   -1.2,  999.0,  999.0,  999.0,  999.0,  999.0,  999.0,  999.0,  999.0,  999.0,  999.0,  999.0,  999.0,  999.0,  999.0,  999.0,  999.0,  999.0,  999.0,  999.0,  999.0,  999.0,  999.0
2007/11/09 05:10,    0.3,    0.8,    1.7,    2.2,    3.1,  999.0,    1.6,    3.6,    4.5,    4.1,    3.7,    3.3,    2.7,    3.1,    3.0,    2.6,    2.6,    3.0,  999.0,    2.9,    2.9,    1.7,    2.0,  999.0,  999.0,    2.4,    2.1,  999.0,    0.9,    0.8,  999.0,  999.0,  999.0,  999.0,   -2.1,  999.0,   -2.8,  999.0,   -2.3,   -3.7,  999.0,  999.0,   -6.2,   -5.2,   -4.9,   -5.2,  999.0,  999.0,  999.0,   -4.4,  999.0,   -3.8,  999.0,  999.0,   -2.2,   -1.5,   -1.2,   -0.2,  999.0,  999.0,  999.0,  999.0,  999.0,  999.0,  999.0,  999.0,  999.0,  999.0,  999.0,  999.0,  999.0,  999.0,  999.0,  999.0,  999.0,  999.0,  999.0,  999.0,  999.0
2007/11/09 05:20,    0.5,    1.3,    1.3,    2.0,    3.7,    3.0,    2.1,    3.9,    3.8,    4.4,    4.0,    3.3,    3.1,    2.8,    3.0,    2.6,    2.5,    2.9,    2.9,    2.9,    3.0,    1.8,    2.1,  999.0,  999.0,    2.0,  999.0,  999.0,    1.2,    1.0,    1.1,  999.0,  999.0,   -1.9,   -2.2,   -2.2,   -2.6,  999.0,  999.0,   -3.9,   -4.7,   -5.6,   -5.8,   -5.6,   -5.3,   -5.1,   -4.7,  999.0,  999.0,  999.0,  999.0,  999.0,  999.0,  999.0,  999.0,   -1.4,   -1.2,    0.1,  999.0,  999.0,  999.0,  999.0,  999.0,  999.0,  999.0,  999.0,  999.0,  999.0,  999.0,  999.0,  999.0,  999.0,  999.0,  999.0,  999.0,  999.0,  999.0,  999.0,  999.0
2007/11/09 05:30,  999.0,  999.0,    0.5,    2.1,    3.1,    1.1,    1.2,    3.5,    4.3,    4.1,    3.3,    3.3,    3.5,    3.0,    3.3,    2.8,    3.2,    3.3,    3.7,    4.0,  999.0,    2.5,    3.0,    4.0,  999.0,    2.3,    2.9,  999.0,    1.1,    1.5,    1.2,  999.0,  999.0,  999.0,   -2.1,   -2.4,   -2.8,   -3.5,   -4.4,  999.0,   -3.5,   -4.6,   -5.3,   -5.4,   -4.5,   -4.4,   -4.4,   -4.4,  999.0,  999.0,  999.0,  999.0,  999.0,   -4.1,   -3.1,   -1.8,   -1.7,  999.0,  999.0,  999.0,  999.0,  999.0,  999.0,  999.0,  999.0,  999.0,  999.0,  999.0,  999.0,  999.0,  999.0,  999.0,  999.0,  999.0,  999.0,  999.0,  999.0,  999.0,  999.0
2007/11/09 05:40,  999.0,  999.0,  999.0,    1.9,    3.6,    1.8,    1.4,    2.8,  999.0,    4.2,    3.7,    3.2,    3.3,    3.4,    3.3,    3.0,    3.4,    3.4,    3.9,    3.9,    3.5,    2.5,    2.7,    2.9,    3.5,    2.8,    2.4,  999.0,    0.8,    0.5,  999.0,    0.8,  999.0,   -1.1,   -2.3,   -2.9,   -2.9,   -3.5,   -4.2,   -3.4,   -4.0,   -4.9,   -5.1,   -4.7,   -3.8,   -4.1,   -4.7,   -5.1,  999.0,  999.0,  999.0,  999.0,  999.0,   -3.7,   -3.2,   -1.6,  999.0,  999.0,  999.0,   -1.1,  999.0,  999.0,  999.0,  999.0,  999.0,  999.0,  999.0,  999.0,  999.0,  999.0,  999.0,  999.0,  999.0,  999.0,  999.0,  999.0,  999.0,  999.0,  999.0
2007/11/09 05:50,  999.0,  999.0,    1.0,    2.6,    1.1,    1.9,    2.9,    4.1,    4.4,    4.5,    3.7,    3.0,    3.9,    3.4,    3.3,    3.2,    3.0,    3.5,    3.6,    3.8,    3.3,    2.4,    2.7,    3.1,    3.8,    2.6,    2.3,  999.0,  999.0,    1.2,  999.0,  999.0,  999.0,  999.0,   -1.5,   -2.3,   -2.6,   -2.6,   -3.2,  999.0,   -3.3,   -4.0,   -3.9,   -2.7,   -2.8,  999.0,   -4.4,  999.0,  999.0,  999.0,  999.0,  999.0,  999.0,  999.0,  999.0,  999.0,  999.0,  999.0,  999.0,  999.0,  999.0,  999.0,  999.0,   -5.6,  999.0,  999.0,  999.0,  999.0,  999.0,  999.0,  999.0,  999.0,  999.0,  999.0,  999.0,  999.0,  999.0,  999.0,  999.0
2007/11/09 06:00,    0.8,    2.7,    1.7,    2.5,    2.6,    3.1,    3.9,    4.7,    4.8,    4.3,    4.3,    3.1,    3.4,    3.3,    3.0,    2.7,    2.7,    2.9,    3.2,    3.3,    2.4,    2.5,  999.0,    3.3,  999.0,    2.3,  999.0,  999.0,    1.0,  999.0,    0.8,  999.0,  999.0,  999.0,   -2.0,   -2.6,   -3.1,   -2.4,   -3.0,   -2.1,  999.0,   -3.5,   -3.9,   -3.6,   -3.3,   -4.4,   -5.7,  999.0,  999.0,  999.0,  999.0,  999.0,  999.0,  999.0,  999.0,   -2.7,  999.0,  999.0,  999.0,  999.0,  999.0,  999.0,   -5.2,   -5.9,   -5.8,  999.0,  999.0,  999.0,  999.0,  999.0,  999.0,  999.0,  999.0,  999.0,  999.0,  999.0,  999.0,  999.0,  999.0
2007/11/09 06:10,    0.6,  999.0,    2.3,    2.9,    2.2,    2.9,    3.7,    4.3,    4.0,    3.7,    3.2,    2.9,    2.8,    2.5,    2.2,    2.3,    2.7,    3.1,    3.2,    3.0,    2.2,    3.2,  999.0,  999.0,    2.8,    2.9,  999.0,  999.0,  999.0,    0.4,  999.0,  999.0,  999.0,  999.0,   -2.4,   -2.7,   -2.3,   -2.9,   -3.3,   -2.1,  999.0,   -2.8,   -3.1,   -3.4,   -3.7,   -4.7,   -5.6,   -5.8,   -6.2,   -4.4,  999.0,  999.0,   -3.8,   -4.3,  999.0,   -2.6,   -2.9,   -1.6,   -1.9,  999.0,  999.0,  999.0,   -5.2,  999.0,  999.0,  999.0,  999.0,  999.0,  999.0,  999.0,  999.0,  999.0,  999.0,  999.0,  999.0,  999.0,  999.0,  999.0,  999.0
2007/11/09 06:20,  999.0,  999.0,  999.0,    2.8,    2.9,    3.5,    3.9,    4.1,    4.3,    4.1,    3.9,    3.5,  999.0,    2.6,    3.7,    3.5,    2.5,    2.6,    2.8,    3.0,    2.8,    2.2,    2.9,  999.0,    2.7,    2.5,  999.0,    0.4,   -0.1,  999.0,  999.0,  999.0,   -2.4,   -3.2,   -3.3,   -3.5,   -4.2,  999.0,  999.0,   -4.0,   -4.5,   -4.2,   -4.8,   -4.6,   -5.5,   -6.2,   -6.0,   -5.8,   -6.0,  999.0,  999.0,  999.0,   -4.7,   -3.9,  999.0,  999.0,   -2.1,   -1.6,  999.0,  999.0,  999.0,  999.0,  999.0,  999.0,  999.0,  999.0,  999.0,  999.0,  999.0,  999.0,  999.0,  999.0,  999.0,  999.0,  999.0,  999.0,  999.0,  999.0,  999.0
2007/11/09 06:30,  999.0,  999.0,    2.1,    2.4,  999.0,    3.7,    3.9,    4.6,    4.5,    4.2,    4.3,    3.5,  999.0,    3.0,    3.0,    3.2,    2.3,    2.6,    2.7,    2.6,    2.6,    2.0,    2.6,  999.0,    2.3,  999.0,    1.3,   -0.2,   -0.8,  999.0,   -1.4,   -2.1,   -2.9,   -3.5,   -3.7,   -3.5,   -4.1,   -4.6,  999.0,   -3.5,   -4.1,   -3.8,   -4.0,   -4.4,   -5.3,   -5.9,   -5.4,   -5.8,   -4.8,   -5.1,  999.0,  999.0,  999.0,   -2.7,   -3.0,  999.0,  999.0,  999.0,  999.0,  999.0,  999.0,  999.0,  999.0,  999.0,  999.0,  999.0,  999.0,  999.0,  999.0,  999.0,  999.0,  999.0,  999.0,  999.0,  999.0,  999.0,  999.0,  999.0,  999.0
2007/11/09 06:40,  999.0,  999.0,  999.0,  999.0,  999.0,  999.0,  999.0,    2.5,    2.4,  999.0,    3.5,  999.0,  999.0,  999.0,  999.0,    2.0,    1.8,    2.1,    2.3,    2.4,    1.0,    2.4,  999.0,  999.0,  999.0,  999.0,    0.2,   -0.1,  999.0,   -0.9,  999.0,   -1.8,  999.0,  999.0,  999.0,   -3.1,   -3.4,  999.0,  999.0,   -3.4,   -3.4,   -4.2,   -4.1,   -5.0,   -5.8,   -6.0,   -5.9,   -5.9,   -5.8,  999.0,   -5.5,   -5.4,   -3.5,   -4.0,   -4.7,  999.0,   -2.9,   -2.3,  999.0,  999.0,  999.0,  999.0,  999.0,  999.0,  999.0,  999.0,  999.0,  999.0,  999.0,  999.0,  999.0,  999.0,  999.0,  999.0,  999.0,  999.0,  999.0,  999.0,  999.0
2007/11/09 06:50,  999.0,  999.0,    0.7,    1.5,    1.8,    2.2,    2.1,    2.9,    2.1,  999.0,  999.0,  999.0,  999.0,  999.0,  999.0,    2.5,    2.3,    2.4,    2.7,    2.3,    1.8,    2.2,  999.0,  999.0,  999.0,  999.0,  999.0,   -0.1,   -0.7,  999.0,  999.0,  999.0,  999.0,   -3.2,  999.0,  999.0,  999.0,  999.0,  999.0,  999.0,   -3.0,   -3.7,   -3.5,   -4.1,   -4.4,   -5.0,   -5.0,  999.0,   -5.0,   -5.2,   -4.9,  999.0,   -3.4,   -2.9,   -3.3,  999.0,   -1.5,  999.0,  999.0,   -2.2,  999.0,  999.0,  999.0,  999.0,  999.0,  999.0,  999.0,  999.0,  999.0,  999.0,  999.0,  999.0,  999.0,  999.0,  999.0,  999.0,  999.0,  999.0,  999.0
2007/11/09 07:00,  999.0,  999.0,    1.9,    3.2,    3.5,    3.4,    3.5,    3.2,  999.0,  999.0,    3.2,    3.1,  999.0,  999.0,  999.0,  999.0,    2.8,    2.7,  999.0,    2.8,    2.4,    2.5,  999.0,  999.0,  999.0,  999.0,    0.3,  999.0,   -0.7,   -1.0,   -0.9,  999.0,   -2.6,   -3.4,  999.0,   -3.3,  999.0,  999.0,   -2.5,   -2.7,   -3.8,   -4.3,   -4.8,   -5.0,   -4.8,   -5.7,   -6.2,   -5.6,   -5.7,   -6.1,   -6.3,  999.0,  999.0,  999.0,  999.0,  999.0,  999.0,   -1.3,   -1.3,   -2.3,  999.0,  999.0,  999.0,  999.0,  999.0,  999.0,  999.0,  999.0,  999.0,  999.0,  999.0,  999.0,  999.0,  999.0,  999.0,  999.0,  999.0,  999.0,  999.0
2007/11/09 07:10,    0.8,    2.3,    1.8,    2.6,    3.4,    3.2,    2.6,    3.6,  999.0,  999.0,  999.0,  999.0,  999.0,  999.0,  999.0,    2.1,    2.6,    2.5,    2.4,    2.2,    1.5,    1.8,    2.2,  999.0,  999.0,  999.0,    2.3,    0.3,   -0.4,   -0.6,   -1.2,  999.0,   -2.1,   -2.8,  999.0,  999.0,  999.0,   -2.6,   -2.3,   -2.3,   -2.9,   -3.7,   -4.1,   -4.7,   -4.5,   -4.9,   -5.3,  999.0,   -4.7,   -5.5,   -6.1,   -5.6,  999.0,   -3.6,   -3.9,  999.0,   -2.4,   -2.1,  999.0,  999.0,  999.0,  999.0,  999.0,  999.0,  999.0,  999.0,  999.0,  999.0,  999.0,  999.0,  999.0,  999.0,  999.0,  999.0,  999.0,  999.0,  999.0,  999.0,  999.0
2007/11/09 07:20,  999.0,  999.0,  999.0,  999.0,  999.0,  999.0,  999.0,    3.4,  999.0,  999.0,  999.0,  999.0,  999.0,    2.9,    2.8,    2.9,    3.0,    2.9,    3.1,    2.6,    1.8,    2.0,    2.6,    1.5,  999.0,  999.0,    1.5,  999.0,    0.1,  999.0,  999.0,   -2.0,   -2.7,  999.0,  999.0,   -3.1,   -2.9,   -3.2,  999.0,   -2.5,  999.0,  999.0,  999.0,  999.0,   -4.9,   -4.1,   -4.3,   -4.6,   -4.0,   -5.1,   -6.0,   -6.0,   -5.4,  999.0,  999.0,  999.0,  999.0,   -2.7,   -2.9,  999.0,   -3.5,  999.0,  999.0,  999.0,  999.0,  999.0,  999.0,  999.0,  999.0,  999.0,  999.0,  999.0,  999.0,  999.0,  999.0,  999.0,  999.0,  999.0,  999.0
2007/11/09 07:30,  999.0,  999.0,    0.8,    3.5,    3.3,    4.0,    1.3,    3.9,    4.0,  999.0,  999.0,    3.4,    3.4,    3.1,    3.1,    3.0,    3.0,    3.1,    2.8,    3.1,    3.1,    2.3,    2.4,    3.1,  999.0,  999.0,  999.0,    0.2,  999.0,  999.0,  999.0,   -2.4,  999.0,  999.0,  999.0,  999.0,   -3.0,   -3.4,  999.0,  999.0,  999.0,  999.0,  999.0,  999.0,  999.0,  999.0,   -3.8,   -4.0,   -4.3,   -4.5,   -5.5,  999.0,   -4.8,  999.0,   -3.2,  999.0,   -2.6,   -2.6,   -3.2,   -3.8,   -4.6,  999.0,  999.0,  999.0,  999.0,  999.0,  999.0,  999.0,  999.0,  999.0,  999.0,  999.0,  999.0,  999.0,  999.0,  999.0,  999.0,  999.0,  999.0
2007/11/09 07:40,   -0.6,  999.0,    0.4,    1.6,    3.3,    3.5,    2.5,    3.4,    3.4,    3.3,    3.5,    3.4,    2.8,    2.9,    2.3,    2.3,    2.4,    2.1,    2.3,    2.4,    2.9,    2.2,    1.9,    2.3,  999.0,  999.0,    2.5,    2.2,    1.6,    0.6,    0.9,    0.4,  999.0,  999.0,  999.0,  999.0,  999.0,   -2.6,  999.0,  999.0,  999.0,  999.0,  999.0,  999.0,  999.0,  999.0,  999.0,   -3.8,   -5.0,   -4.7,   -5.2,   -5.8,   -5.1,   -5.4,  999.0,   -3.9,   -3.1,   -3.2,   -3.3,   -4.4,   -5.2,   -5.6,  999.0,  999.0,  999.0,  999.0,  999.0,  999.0,  999.0,  999.0,  999.0,  999.0,  999.0,  999.0,  999.0,  999.0,  999.0,  999.0,  999.0
2007/11/09 07:50,    0.2,    1.5,    0.7,    2.6,    2.7,    2.8,    2.2,    3.1,    3.5,    3.9,    3.7,    3.3,    3.0,    2.7,    2.3,    2.2,    2.0,    2.2,    2.2,    2.4,    2.5,    2.3,    1.5,    1.7,    2.0,    2.4,    2.2,    2.8,    1.1,    0.8,    0.9,    1.0,    0.3,  999.0,  999.0,  999.0,   -1.3,   -1.7,   -2.1,  999.0,  999.0,  999.0,  999.0,  999.0,   -3.4,  999.0,   -3.2,  999.0,  999.0,   -4.6,  999.0,  999.0,   -5.1,   -4.9,  999.0,  999.0,   -3.2,  999.0,  999.0,   -4.4,   -5.2,  999.0,  999.0,  999.0,  999.0,  999.0,  999.0,  999.0,  999.0,  999.0,  999.0,  999.0,  999.0,  999.0,  999.0,  999.0,  999.0,  999.0,  999.0
2007/11/09 08:00,    0.9,    0.7,    0.8,    2.3,  999.0,    1.7,    1.5,    2.3,    3.5,    3.5,    2.9,    2.9,    2.5,    2.3,    2.3,    2.3,    2.3,    2.4,    2.4,    3.1,    2.7,    2.3,    1.5,    1.6,    1.9,    1.8,    2.0,    2.3,    1.1,    0.4,    0.4,    0.5,  999.0,  999.0,  999.0,  999.0,   -1.6,   -1.8,   -2.0,  999.0,  999.0,  999.0,  999.0,  999.0,  999.0,  999.0,  999.0,  999.0,   -4.1,   -4.4,   -5.2,  999.0,   -5.2,   -4.9,  999.0,  999.0,  999.0,   -3.9,  999.0,  999.0,  999.0,  999.0,  999.0,  999.0,  999.0,  999.0,  999.0,  999.0,  999.0,  999.0,  999.0,  999.0,  999.0,  999.0,  999.0,  999.0,  999.0,  999.0,  999.0
2007/11/09 08:10,    0.0,   -0.1,    0.3,    0.6,    1.1,    0.7,    0.5,    2.1,    3.1,    3.6,    3.7,    3.4,    2.6,    2.4,    2.2,    2.2,    2.6,    2.5,    2.3,    2.4,    2.2,    1.4,    1.4,    2.0,    2.1,    2.6,  999.0,    1.1,    0.7,    1.0,    0.8,  999.0,  999.0,  999.0,  999.0,  999.0,   -0.6,   -0.7,  999.0,   -1.7,  999.0,  999.0,  999.0,  999.0,   -2.1,  999.0,   -2.6,   -3.1,   -3.6,   -4.3,   -4.9,   -5.8,   -5.1,   -4.8,   -5.7,  999.0,  999.0,  999.0,  999.0,  999.0,   -5.3,  999.0,  999.0,  999.0,  999.0,  999.0,  999.0,  999.0,  999.0,  999.0,  999.0,  999.0,  999.0,  999.0,  999.0,  999.0,  999.0,  999.0,  999.0
2007/11/09 08:20,   -0.1,    0.2,    0.1,    0.7,    0.4,    0.4,    1.1,    2.5,    3.4,    3.5,    3.1,    3.0,    2.3,    2.5,    2.2,    2.2,    2.7,    2.7,    2.6,    2.5,    2.0,    1.2,    1.1,    1.3,  999.0,    2.4,  999.0,  999.0,  999.0,  999.0,  999.0,   -1.5,   -1.2,   -1.3,  999.0,  999.0,   -0.7,   -1.1,  999.0,   -2.3,  999.0,  999.0,  999.0,  999.0,   -1.9,   -2.4,   -3.1,   -3.7,   -3.7,   -4.1,  999.0,   -5.6,   -5.3,   -4.6,   -5.1,  999.0,   -4.6,  999.0,  999.0,  999.0,  999.0,   -4.7,   -5.7,  999.0,  999.0,  999.0,  999.0,  999.0,  999.0,  999.0,  999.0,  999.0,  999.0,  999.0,  999.0,  999.0,  999.0,  999.0,  999.0
2007/11/09 08:30,  999.0,   -0.2,    0.3,    0.3,    1.1,    1.1,    0.9,    2.3,    2.8,    2.1,    2.9,    2.3,    1.7,    1.9,    1.6,    1.8,    2.3,    2.1,    2.3,    2.2,    1.8,    0.9,    0.5,    1.0,    1.4,    1.5,    0.9,   -0.3,   -0.2,   -0.8,  999.0,   -2.0,   -2.7,   -1.8,   -1.6,  999.0,   -1.9,  999.0,  999.0,  999.0,  999.0,  999.0,  999.0,   -1.2,  999.0,  999.0,   -3.1,   -3.3,   -3.8,   -4.5,  999.0,  999.0,  999.0,   -4.2,  999.0,   -3.6,  999.0,  999.0,  999.0,  999.0,   -3.6,   -4.0,  999.0,  999.0,  999.0,  999.0,  999.0,  999.0,  999.0,  999.0,  999.0,  999.0,  999.0,  999.0,  999.0,  999.0,  999.0,  999.0,  999.0
2007/11/09 08:40,   -0.1,    0.0,    0.1,    0.1,    1.0,    0.4,    0.1,    0.8,    0.9,    3.3,    3.1,    3.6,    2.6,    2.3,    2.5,    2.2,    1.8,    2.0,    2.0,    2.0,    1.7,    1.2,    0.5,    0.8,    0.6,    0.9,    0.9,   -0.6,   -0.6,   -0.8,   -1.8,   -1.9,  999.0,   -1.6,  999.0,  999.0,   -2.7,  999.0,  999.0,  999.0,  999.0,  999.0,  999.0,   -1.6,  999.0,   -3.0,   -3.8,   -3.8,   -4.2,   -4.5,  999.0,  999.0,  999.0,  999.0,   -2.7,   -3.0,  999.0,   -3.1,  999.0,   -3.0,   -3.7,   -3.9,  999.0,  999.0,  999.0,  999.0,  999.0,  999.0,  999.0,  999.0,  999.0,  999.0,  999.0,  999.0,  999.0,  999.0,  999.0,  999.0,  999.0
2007/11/09 08:50,    0.1,    0.1,    0.1,    0.3,    0.9,    2.4,    2.3,    3.7,    3.2,    4.1,    4.1,    3.6,    3.3,    2.8,    2.5,    1.7,    1.5,    1.2,    2.2,    1.6,    0.5,    0.9,    1.3,    0.3,    0.6,    0.0,    0.0,   -0.0,   -0.7,   -2.1,   -2.7,   -2.1,  999.0,   -3.0,   -3.1,   -2.2,   -2.3,   -3.3,  999.0,  999.0,  999.0,  999.0,  999.0,   -1.8,  999.0,   -2.9,   -3.9,   -4.6,   -3.7,   -2.2,   -3.1,   -4.1,   -3.1,  999.0,  999.0,   -3.0,  999.0,  999.0,  999.0,  999.0,   -4.5,  999.0,  999.0,  999.0,  999.0,  999.0,  999.0,  999.0,  999.0,  999.0,  999.0,  999.0,  999.0,  999.0,  999.0,  999.0,  999.0,  999.0,  999.0
2007/11/09 09:00,    0.3,    0.5,    0.2,    0.4,    1.3,    1.4,    0.8,    1.0,    1.0,    1.5,    1.2,    1.2,    1.4,    1.2,    1.0,    1.8,    1.3,    1.5,    3.3,    2.6,    2.0,    0.2,   -1.6,   -2.2,   -4.9,   -4.8,   -5.9,   -4.5,   -4.6,  -11.0,   -7.2,  999.0,  999.0,   -6.1,   -6.9,   -5.7,   -5.2,   -4.3,   -2.5,   -3.3,  -10.2,  -10.9,  -10.7,   -7.8,   -8.8,   -8.3,  999.0,   -6.0,   -6.4,   -5.7,   -7.2,   -4.7,  999.0,   -0.1,   -1.2,    0.3,   -0.7,   -1.2,   -0.8,  999.0,  999.0,  999.0,  999.0,  999.0,  999.0,  999.0,  999.0,  999.0,  999.0,  999.0,  999.0,  999.0,  999.0,  999.0,  999.0,  999.0,  999.0,  999.0,  999.0
2007/11/09 09:10,  999.0,    6.0,  999.0,    4.5,    1.9,    3.8,    2.4,    3.3,    6.7,    7.7,   10.7,   10.6,   11.7,   11.9,   12.0,    9.4,    9.3,    8.9,    7.9,    6.6,    5.9,    3.7,    2.1,    1.2,   -1.0,   -1.6,   -0.7,   -4.4,   -3.1,   -4.7,   -5.7,   -6.4,  999.0,   -6.5,   -4.4,   -4.3,   -4.5,   -5.0,   -5.2,  999.0,  999.0,  999.0,  999.0,  -12.3,  -13.4,  -13.4,  -15.5,  -14.3,  -15.3,   -4.9,   -9.4,  -11.1,  -14.7,   -6.9,  -10.2,   -5.0,   -4.7,   -4.1,   -1.5,   -6.9,   -0.2,  999.0,  999.0,  999.0,  999.0,  999.0,    0.6,  999.0,  999.0,  999.0,  999.0,  999.0,  999.0,  999.0,  999.0,  999.0,  999.0,  999.0,  999.0
2007/11/09 09:20,    6.3,    5.8,    4.8,    3.7,    3.1,    1.9,    1.6,    4.1,    4.2,    4.1,    5.4,    4.7,    2.4,    2.4,    5.0,  999.0,    5.3,    6.3,  999.0,    7.4,    5.0,    5.6,    8.6,    6.0,    7.0,    5.0,    6.3,    7.1,    7.7,    4.9,    5.3,    4.6,    3.0,    6.0,    5.2,    4.6,    3.4,    1.4,    3.0,   -2.8,   -2.3,   -2.3,   -2.8,    2.2,   -1.3,   -1.5,   -3.5,   -3.2,   -3.9,   -2.8,   -2.9,   -5.1,   -4.0,  999.0,   -3.9,   -5.7,   -5.2,   -5.0,   -5.4,   -6.8,   -7.2,  999.0,   -3.5,   -1.8,   -2.2,   -1.1,   -0.4,    0.4,   -0.4,  999.0,    0.3,    0.9,  999.0,  999.0,   -0.4,    2.2,   -0.3,   -0.8,  999.0
2007/11/09 09:30,    6.1,    5.5,    4.8,    4.5,    3.5,    2.0,    3.4,    3.5,    5.0,    4.6,    4.8,    6.7,    6.3,    5.1,    7.0,    5.0,    3.2,    2.2,   -0.7,    0.1,    0.5,    0.5,    2.4,    2.0,    3.2,    3.1,    1.9,    1.5,  999.0,    1.9,    2.4,    3.1,    3.0,  999.0,  999.0,  999.0,  999.0,  999.0,   -0.5,    0.6,  999.0,  999.0,  999.0,   -0.3,    2.2,    2.4,    3.7,    4.1,    4.6,  999.0,  999.0,    6.5,    3.4,  999.0,    4.6,  999.0,    6.5,  999.0,  999.0,  999.0,    7.6,    6.4,  999.0,  999.0,  999.0,    4.1,    5.3,    6.7,    7.8,  999.0,   10.5,   13.7,   11.4,    8.6,    9.1,   12.5,   10.0,    8.4,   12.3
2007/11/09 09:40,    1.7,    0.1,    1.4,    0.1,    0.6,    2.5,    1.9,    1.8,    1.8,    0.7,   -0.2,    1.4,    1.4,    0.4,    0.2,    1.3,  999.0,    7.2,    0.3,    0.9,    1.3,    0.0,   -0.3,    6.5,    4.2,    2.5,   -0.3,   -2.3,   -1.7,   -1.4,    1.1,    0.0,  999.0,    2.8,  999.0,  999.0,  999.0,  999.0,  999.0,  999.0,    1.1,    3.1,    4.5,    3.7,    1.7,    1.2,   -0.5,   -1.2,   -1.3,   -1.2,    1.6,  999.0,    1.9,  999.0,    3.5,    4.3,    0.1,    3.0,    3.8,    5.7,  999.0,  999.0,    4.9,    7.1,    6.4,    8.5,    8.1,  999.0,  999.0,  999.0,   11.4,   14.4,   13.3,   12.3,  999.0,  999.0,  999.0,  999.0,  999.0
2007/11/09 09:50,   -3.3,  999.0,  999.0,  999.0,  999.0,  999.0,    1.0,    1.6,    4.0,    3.6,    2.3,    2.1,    1.9,    1.4,    2.1,    1.7,    0.7,    0.7,    1.5,    2.9,    4.0,    4.8,    4.7,    5.3,    4.5,    6.1,    5.3,    4.1,    2.3,    1.2,   -0.3,   -1.0,   -1.4,   -1.6,   -0.8,   -1.5,   -2.4,   -1.3,  999.0,  999.0,   -4.7,   -4.1,   -4.7,  999.0,   -6.2,   -6.9,   -6.2,   -4.4,   -4.1,   -3.4,   -2.9,   -4.7,   -1.9,  999.0,  999.0,   -3.4,   -2.5,   -0.6,   -1.3,    0.7,    0.6,    2.3,    1.6,    5.2,    3.6,    6.9,    1.7,   12.5,    6.9,    9.9,    7.0,   11.7,   14.0,    7.4,   10.7,  999.0,  999.0,    3.7,  999.0
2007/11/09 10:00,    2.5,    2.4,  999.0,  999.0,  999.0,  999.0,    7.5,    7.3,    6.8,   -4.3,    6.1,   -1.6,    6.4,   -2.2,   -2.8,    0.7,    5.1,    4.8,    5.7,    4.7,    4.9,    4.2,    3.8,    2.9,    1.8,    2.9,    2.9,   -1.8,   -2.2,   -0.3,    1.9,    2.1,  999.0,    1.9,    3.3,    2.2,    2.4,    1.2,    1.7,    2.4,    2.3,    1.0,    0.4,    0.4,    0.1,    1.0,    1.0,   -0.0,   -0.4,    1.2,    0.5,    0.9,    5.2,    1.2,    6.8,  999.0,  999.0,  999.0,  999.0,   -4.0,   -3.4,   -3.2,   -4.0,   -4.1,   -3.6,   -3.6,   -3.9,   -4.1,   -5.2,   -5.1,   -6.3,   -6.8,   -3.7,   -4.2,   -4.9,   -6.5,   -4.5,   -3.3,   -1.6
2007/11/09 10:10,    1.9,    2.2,    2.3,    2.8,  999.0,  999.0,  999.0,    4.7,    3.1,  999.0,    2.6,   -1.8,    3.4,    1.5,    1.3,    2.6,    2.2,    4.1,    5.2,    5.1,    4.2,    4.9,    4.9,    4.1,    3.6,    3.6,    3.1,    2.5,   -0.0,    1.5,    0.5,    0.3,    0.2,    0.2,   -1.2,   -0.6,   -1.0,   -2.8,   -1.8,   -4.6,   -5.5,   -2.0,   -1.1,   -2.4,   -3.2,   -3.7,   -4.3,   -2.2,   -4.3,  999.0,   -4.4,   -3.9,   -3.9,   -2.0,   -1.2,   -1.1,   -0.7,    0.4,    0.4,    2.2,   -1.7,   -0.1,   -1.3,   -3.5,   -3.1,   -2.7,   -3.1,   -2.8,   -3.4,   -4.0,   -3.8,   -4.4,   -4.6,   -4.7,   -4.4,   -3.8,   -3.7,   -3.6,   -3.6
2007/11/09 10:20,    2.2,    2.9,    3.4,  999.0,    2.3,    2.7,    2.7,    1.3,    2.2,    2.4,    1.7,    0.9,    1.5,    2.6,    1.0,    0.1,    3.4,    0.7,   -0.0,    0.9,    0.6,    2.3,    3.9,    3.8,    3.6,    3.3,    3.3,    2.8,    0.8,    3.4,    3.3,    3.5,    3.2,    3.1,    1.6,    1.3,  999.0,   -1.5,   -1.8,   -0.6,   -1.4,   -1.6,   -1.7,   -1.7,   -2.3,   -3.5,  999.0,   -1.3,   -2.4,   -1.7,   -1.5,   -1.2,   -1.5,   -2.1,   -1.1,    0.8,    1.5,    1.6,    0.1,    0.9,    0.6,   -1.4,   -1.0,   -4.9,   -4.2,   -3.9,   -3.2,   -4.0,   -4.2,   -4.6,   -4.9,   -4.7,   -3.7,   -4.2,   -3.7,   -3.7,   -4.5,   -4.5,   -5.3
2007/11/09 10:30,    0.1,    1.2,  999.0,    3.3,    3.7,    4.5,    4.6,    4.9,    5.4,    5.8,    5.7,    5.4,    4.7,    3.5,    3.3,    3.1,    2.9,    3.4,    3.4,    2.5,    2.0,    2.7,    3.7,    5.0,    6.2,    6.4,    7.3,    6.4,    1.5,    1.6,   -0.8,    1.0,    3.1,    3.2,    4.5,    2.5,    3.7,    2.6,    1.0,    1.3,    1.0,   -0.2,   -3.0,   -3.5,   -4.0,   -5.3,   -3.3,   -2.7,   -4.2,   -4.4,   -2.5,  999.0,  999.0,  999.0,   -3.9,   -6.4,   -5.8,   -6.1,   -5.9,   -5.2,   -4.9,   -4.4,   -4.0,   -3.8,   -3.5,   -3.7,   -5.1,   -5.7,   -6.4,   -7.7,   -7.9,   -7.7,   -7.7,   -6.7,   -6.0,   -5.3,   -4.6,   -4.3,   -4.2
2007/11/09 10:40,  999.0,    2.3,    3.3,    3.9,    4.4,    4.1,    3.3,    3.1,    3.3,    1.9,    2.3,    2.2,    2.0,    1.7,    2.0,    2.2,    3.2,    3.1,    3.5,    4.6,    3.9,    3.9,    3.9,    3.8,    3.6,    3.2,    2.1,    2.0,    1.7,    1.1,    2.2,    0.2,    0.1,    0.1,   -0.4,   -0.8,   -1.3,   -1.7,   -1.2,    0.1,    1.1,    3.3,    3.9,    4.1,    3.8,    3.4,    3.3,    3.2,    3.1,    1.5,    1.3,    0.3,   -2.1,   -1.8,   -1.9,   -2.1,   -2.9,   -2.8,   -3.0,   -3.0,   -3.3,   -2.8,   -2.8,   -2.6,   -2.9,   -3.2,   -3.4,   -6.2,   -6.3,   -6.4,   -6.3,   -6.9,   -8.6,   -8.7,   -9.0,   -9.2,   -8.7,   -8.4,  -10.0
2007/11/09 10:50,    0.2,    1.3,    2.5,    3.3,    3.9,    4.1,    4.5,    5.3,    5.1,    6.1,    6.5,    5.6,    5.6,    5.0,    5.1,    5.7,    5.5,    4.9,    4.6,    4.2,    4.1,    3.9,    4.0,    3.7,    4.1,    4.3,    4.8,    5.3,    5.1,    5.7,    5.5,    4.1,    3.4,    2.3,    1.7,   -0.6,   -3.0,   -3.7,   -2.0,   -2.9,   -0.9,    1.5,    2.4,    2.6,  999.0,  999.0,    5.4,    3.6,   -0.1,   -1.0,   -1.0,   -1.7,   -1.6,   -1.6,   -2.2,   -2.7,   -2.8,   -2.7,   -3.1,   -2.4,  999.0,   -2.1,   -1.1,   -1.3,   -2.2,   -1.2,  999.0,   -5.0,   -4.7,   -4.9,   -4.5,   -4.5,   -4.7,   -4.4,   -5.0,   -5.0,   -4.5,   -4.2,   -4.1
2007/11/09 11:00,    0.6,    1.4,    2.8,    4.1,    5.0,    5.6,    5.4,    5.5,    5.0,    4.3,    4.1,    4.5,    4.2,    3.9,    3.7,    1.2,    0.2,    0.1,    0.4,    0.2,   -0.1,   -0.7,   -0.7,   -1.4,   -1.0,   -0.4,  999.0,  999.0,  999.0,    3.3,    4.5,    4.3,    4.2,    3.9,    2.5,    1.8,    2.6,    3.0,    2.7,    0.5,    0.2,    2.5,    3.1,    3.8,    2.4,    1.8,    0.8,   -1.9,   -4.2,   -6.2,   -6.0,   -5.9,   -6.3,   -5.7,   -5.1,   -4.6,   -3.7,   -4.2,   -3.9,   -4.2,   -4.4,   -4.3,   -4.4,   -2.1,   -3.5,   -3.5,   -3.8,   -4.0,   -4.1,   -4.4,   -3.8,   -4.0,   -4.3,   -4.3,   -3.8,   -4.5,   -4.4,   -4.8,   -4.8
2007/11/09 11:10,    5.4,  999.0,   12.4,  999.0,   11.2,    8.3,    7.0,   11.1,    6.9,    7.2,    6.1,    5.1,    3.6,    3.3,    3.2,    3.0,    3.8,    3.6,    4.0,    4.1,    4.0,    4.3,    4.2,    4.5,    5.1,    5.3,    5.7,  999.0,  999.0,    4.0,  999.0,  999.0,  999.0,  999.0,  999.0,  999.0,  999.0,  999.0,    0.5,    0.3,   -0.2,    2.1,  999.0,   -0.6,   -0.6,    0.3,    2.6,    1.5,  999.0,   -0.3,   -1.5,   -2.6,   -3.2,   -3.4,   -3.6,   -5.4,   -5.4,   -4.8,   -4.1,   -3.2,   -2.2,   -1.9,   -1.5,   -1.2,   -1.1,   -0.0,   -1.2,   -1.2,   -1.5,   -1.7,   -2.1,   -2.3,   -2.9,   -3.6,   -4.5,   -4.7,   -4.9,   -5.3,   -5.5
2007/11/09 11:20,  999.0,   10.1,  999.0,    9.6,    9.5,    9.0,    7.9,    7.2,    6.6,    5.4,    4.8,    4.4,    4.5,    3.3,    3.1,    2.9,    3.0,    2.6,    2.6,    2.3,    2.1,    2.3,    2.5,    2.4,    2.0,    1.6,    1.9,    2.4,    2.2,    2.1,    2.1,    1.7,    1.1,    0.6,   -0.4,   -1.2,   -1.7,   -2.0,   -2.0,   -2.3,   -1.9,   -1.4,   -1.0,   -0.3,   -0.5,   -0.2,   -0.1,    1.3,    0.8,    0.2,   -0.4,   -1.1,   -2.1,   -2.0,   -1.8,   -1.3,   -2.3,  999.0,   -1.7,   -1.9,   -1.3,   -0.9,   -0.9,   -0.7,   -0.0,   -0.2,   -0.4,   -0.2,    0.1,   -0.2,   -1.6,   -2.7,   -2.6,   -3.4,   -3.8,   -4.1,   -4.4,   -4.1,   -4.7
2007/11/09 11:30,  999.0,   10.4,    8.9,    9.1,   10.0,   10.3,   10.0,    8.9,    8.0,    6.1,    3.9,    2.6,    1.8,    1.1,    0.6,    0.6,    0.6,    0.7,    1.0,    0.9,    1.2,    1.6,    2.3,    2.7,    3.5,    3.7,    4.4,    5.7,    5.5,    5.2,    4.7,    3.9,    3.4,    3.8,    5.3,    6.7,    7.1,    5.9,    7.4,    6.6,    6.4,    6.3,    5.7,    5.1,    4.4,    4.1,    3.0,  999.0,    0.6,    0.5,   -0.2,   -0.8,   -1.4,   -1.7,   -1.0,   -0.7,   -1.1,   -1.3,   -2.0,   -2.7,   -2.7,   -2.4,   -2.3,   -2.3,   -2.5,   -2.8,   -2.8,   -2.7,   -2.5,   -2.4,   -2.3,   -2.0,   -2.0,   -2.4,   -2.8,   -3.2,   -3.5,   -3.8,   -3.9
2007/11/09 11:40,    7.3,    7.2,    6.9,    7.4,    8.3,    8.8,   10.1,    9.8,    9.8,    8.5,    5.8,    4.0,    3.3,    2.6,    2.1,    1.9,    1.6,    2.1,    2.2,    2.8,    3.0,    2.6,    2.2,    2.2,    1.7,    0.9,    0.3,    0.9,    1.1,    0.9,    0.2,    0.1,    0.6,    1.4,    2.1,    2.4,    3.0,    3.0,  999.0,  999.0,    4.3,    3.1,    4.1,    4.4,    4.2,    2.9,    2.2,    1.4,    1.9,    1.7,    1.1,    0.8,    0.4,    0.8,    0.7,    0.4,    0.1,   -0.5,   -0.8,   -1.6,   -2.6,   -2.6,   -2.6,   -2.2,   -1.7,   -1.0,   -0.4,   -0.3,   -0.3,   -0.3,   -0.4,   -0.6,   -0.9,   -1.2,   -1.6,   -2.1,   -2.7,   -3.0,   -3.6
2007/11/09 11:50,  999.0,    5.7,    6.1,    6.3,    6.5,    6.8,    6.9,    6.8,    6.6,    6.0,    5.4,    5.3,    5.5,    4.0,    3.6,    3.7,    3.4,    2.2,    2.3,    2.5,    2.2,    2.8,    3.1,    4.0,    3.4,    4.0,    3.6,    4.3,    4.6,    3.7,    4.2,    4.2,    4.1,    4.1,    3.6,    3.9,    4.1,    4.2,    5.7,    6.2,    6.0,  999.0,  999.0,    1.9,    2.1,    2.5,    0.8,   -0.3,   -0.3,    0.5,   -0.1,    0.0,   -0.1,    0.1,    0.3,    0.8,    1.0,    1.4,    1.3,    1.0,    0.6,    0.5,   -0.3,   -0.3,   -0.6,   -0.6,   -0.6,   -0.6,   -0.3,    0.3,    0.5,    0.4,    0.5,    0.4,    0.2,   -0.1,   -0.9,   -1.5,   -2.0
2007/11/09 12:00,    5.9,    5.9,    6.0,    5.4,    4.6,    3.8,    2.8,    2.3,    1.5,    0.5,    0.3,   -0.2,   -0.4,   -0.7,   -0.6,   -0.9,   -1.0,   -1.3,   -0.8,    0.0,    0.1,    1.3,    1.8,    0.5,   -0.5,    1.5,    0.5,   -0.7,    2.6,    1.4,    2.7,    2.2,    2.1,    1.4,    1.2,   -0.4,   -0.6,   -2.2,   -3.4,   -2.2,   -2.9,    0.6,    3.2,    3.0,    2.8,    2.5,    1.7,    0.5,   -0.2,   -0.6,   -1.3,   -1.0,   -1.6,   -1.1,   -1.3,   -1.3,   -1.8,   -2.0,   -1.9,   -1.2,   -0.8,   -0.5,   -0.2,   -0.4,   -0.5,   -0.6,   -0.7,   -0.6,   -0.5,   -0.4,   -0.2,   -0.2,   -0.2,   -0.2,   -0.4,   -0.5,   -0.9,   -1.4,   -1.8
2007/11/09 12:10,    5.4,    6.0,    5.1,    4.5,    4.0,    4.1,    3.4,    2.7,    2.3,    2.5,    2.7,    2.4,    2.2,    1.5,    1.4,    1.5,    1.6,    0.7,    1.3,    1.0,    0.6,    0.6,    0.9,    0.8,    1.3,    1.2,    1.6,    1.5,    1.9,    2.0,    2.5,    3.4,    3.7,    3.5,    3.0,    1.2,    0.7,    0.0,   -0.8,   -1.0,   -0.2,    0.2,  999.0,  999.0,  999.0,   -0.6,   -1.0,   -1.2,   -1.7,   -1.9,   -1.8,   -1.7,   -1.4,   -1.1,   -0.8,   -0.7,   -0.5,   -0.1,    0.0,    0.1,    0.0,    0.2,    0.5,    0.6,    0.7,    0.6,    0.5,    0.3,    0.1,    0.1,    0.2,    0.1,   -0.1,   -0.4,   -0.5,   -0.5,   -0.7,   -0.9,   -1.4
2007/11/09 12:20,    5.5,    6.1,    5.5,    5.0,    4.9,    4.6,    4.8,    3.7,    3.9,    4.4,    5.4,    5.7,  999.0,  999.0,    6.1,    5.0,    4.3,    3.5,    1.8,    1.0,    0.4,   -0.1,   -0.3,    0.0,    0.2,    0.3,    0.4,    0.3,    0.3,    0.3,    0.4,    1.2,    2.0,    2.8,    3.2,    2.9,    1.8,    0.8,    0.3,    0.4,    1.9,    2.7,    1.3,    0.2,   -0.4,   -0.5,   -1.1,   -1.7,   -2.5,   -3.1,   -3.0,   -3.1,   -3.1,   -3.0,   -2.6,   -2.2,   -1.9,   -1.5,   -1.3,   -1.3,   -1.3,   -1.4,   -1.2,   -0.8,   -0.6,   -0.6,   -0.7,   -0.9,   -0.9,   -0.8,   -0.8,   -0.7,   -0.6,   -0.3,   -0.2,    0.1,   -0.0,    0.3,    0.1
2007/11/09 12:30,  999.0,    4.9,    4.9,    4.1,    3.7,    3.4,    3.0,    3.1,    3.5,    2.9,    2.8,    3.2,    3.6,    3.1,    3.4,    3.4,    3.4,    3.0,    2.4,    3.1,    2.4,    2.0,    1.7,    0.5,    0.2,    0.9,    0.3,    0.6,    0.6,    0.6,    0.2,   -0.6,   -0.4,   -0.0,    0.8,    0.9,    0.7,   -0.2,   -0.2,    0.6,    2.0,    3.1,    1.9,    1.1,    1.0,    0.3,   -0.1,   -0.5,   -1.1,   -1.7,   -2.1,   -2.4,   -2.6,   -3.1,   -3.2,   -3.2,   -2.8,   -2.5,   -2.2,   -1.8,   -1.7,   -1.6,   -1.4,   -0.9,   -0.7,   -0.6,   -0.3,   -0.0,    0.0,   -0.1,   -0.2,   -0.0,    0.3,    0.7,    0.6,    0.6,    0.4,    0.5,    0.5
2007/11/09 12:40,    5.7,    5.0,    4.6,    4.2,    4.3,    3.7,    3.0,    2.8,    2.8,    2.4,    2.2,    3.0,    4.0,    4.7,    4.8,    4.7,    4.6,    4.5,    4.3,    4.5,    3.9,    3.2,    2.4,    2.1,    1.8,    1.5,    1.4,    1.1,    1.0,    1.0,    0.8,    0.7,    0.8,    0.9,    1.9,    2.3,    2.3,    1.8,    1.6,    1.0,    2.2,    3.0,    3.0,    2.5,    2.0,    1.7,  999.0,  999.0,    0.4,    0.3,   -0.2,   -0.8,   -1.8,   -2.6,   -3.0,   -3.1,   -3.2,   -3.4,   -3.0,   -2.5,   -2.0,   -1.4,   -0.7,   -0.1,    0.5,    0.9,    1.1,    1.1,    0.9,    0.8,    0.6,    0.7,    0.8,    0.8,    0.6,    0.7,    0.0,   -0.6,   -0.7
2007/11/09 12:50,    7.3,    6.4,    4.6,    3.6,    4.3,    3.1,    2.7,    2.6,    2.5,    3.2,    4.0,    5.1,    5.6,    5.2,    5.1,    5.0,    4.3,    4.2,    3.7,    3.7,    3.0,    3.5,    3.4,    2.4,    2.3,    2.3,    2.2,    3.0,    3.0,    3.1,    3.7,    3.5,    3.4,    3.6,    2.5,    2.4,    2.6,    2.2,    2.3,    1.4,  999.0,    0.6,    0.5,    1.0,    1.2,    0.7,    0.0,   -0.4,   -0.7,   -1.2,   -1.8,   -2.0,   -2.2,   -2.3,   -2.5,   -2.5,   -2.2,   -2.2,   -2.4,   -2.2,   -2.7,   -3.0,   -2.9,   -2.7,   -1.8,   -0.7,    0.3,    0.4,    0.1,   -0.4,   -0.9,   -1.2,   -1.1,   -1.2,   -1.3,   -1.2,   -1.1,   -0.9,   -0.9
2007/11/09 13:00,    5.5,    6.9,    5.3,    4.1,    4.3,    2.9,    2.2,    1.7,    1.1,    1.4,    2.6,    3.5,    4.3,    3.9,    3.5,    3.1,    2.5,    2.6,    2.4,    3.3,    4.3,    4.6,    4.6,    4.2,    2.8,    1.5,    1.5,    1.3,    1.4,    1.6,    1.5,    0.6,    0.9,    1.5,    1.9,    2.3,    2.1,    1.6,    2.0,    0.6,   -0.2,   -0.1,   -0.1,    0.3,    0.5,    0.3,   -0.1,   -0.4,   -0.4,   -0.4,   -0.7,   -1.0,   -1.4,   -1.3,   -1.5,   -1.9,   -2.2,   -2.3,   -2.7,   -2.8,   -2.9,   -3.3,   -3.6,   -3.8,   -3.4,   -2.3,   -0.8,   -0.3,   -0.0,   -0.2,   -0.8,   -1.0,   -1.1,   -1.3,   -1.4,   -1.5,   -1.5,   -1.3,   -1.2
2007/11/09 13:10,    6.0,    5.7,    4.4,    3.8,    3.2,    2.1,    0.8,   -0.2,   -0.5,    0.2,    1.0,    1.6,    2.2,    2.7,    2.7,    2.2,    1.4,    2.0,    3.5,    4.5,    4.9,    4.2,    3.0,    1.9,    0.8,    0.7,    0.7,    1.0,    1.4,    1.5,    0.8,    0.3,    0.2,    0.8,    1.6,    1.0,   -0.1,   -0.3,   -1.1,   -1.7,   -0.3,   -2.4,   -2.2,   -1.9,   -2.4,   -2.1,   -2.5,   -2.3,   -1.9,   -1.6,   -1.5,   -1.5,   -1.8,   -2.2,   -2.4,   -2.7,   -3.0,   -3.3,   -3.6,   -3.9,   -4.2,   -4.0,   -3.7,   -3.2,   -2.6,   -2.2,   -1.6,   -1.2,   -1.0,   -0.8,   -1.0,   -1.5,   -1.7,   -1.8,   -2.1,   -2.2,   -2.0,   -1.7,   -1.5
2007/11/09 13:20,    5.4,    6.3,    4.9,    4.3,    3.7,    2.7,    1.9,    1.5,    1.1,    1.6,    1.8,    1.4,    1.9,    2.3,    2.3,    2.0,    1.8,    1.7,    2.7,    3.5,    4.0,    3.0,    1.0,   -0.3,   -0.7,   -0.5,   -0.2,   -0.3,    0.2,   -0.3,   -0.1,   -0.1,    1.0,    1.3,    0.5,   -0.3,   -1.2,   -1.8,   -2.7,   -2.8,   -3.4,   -2.3,   -2.7,   -2.3,   -2.5,   -2.2,   -1.9,   -1.3,   -1.1,   -1.2,   -1.4,   -1.8,   -2.5,   -2.9,   -3.1,   -3.2,   -3.5,   -3.8,   -3.6,   -3.4,   -3.1,   -2.4,   -2.0,   -1.7,   -1.3,   -1.0,   -0.9,   -0.8,   -0.6,   -0.5,   -0.6,   -1.1,   -1.5,   -1.5,   -1.7,   -1.8,   -1.7,   -1.4,   -1.4
2007/11/09 13:30,    4.5,    6.0,    5.6,    5.3,    4.4,    3.8,    3.2,    2.4,    2.0,    2.0,    1.7,    1.2,    1.3,    1.6,    2.1,    1.7,    1.3,    1.2,    1.6,    2.5,    3.4,    3.3,    2.3,    0.9,    0.4,    0.9,    1.0,    1.3,    0.9,    1.1,    1.4,    1.9,    1.3,    1.4,   -1.0,   -1.2,   -1.4,   -2.0,   -2.3,   -1.8,   -2.1,    0.3,   -1.0,   -1.9,  999.0,  999.0,   -2.6,   -2.8,   -3.2,   -3.5,   -3.5,   -3.7,   -3.8,   -3.9,   -3.9,   -4.1,   -4.1,   -4.0,   -3.6,   -3.1,   -2.6,   -2.0,   -1.7,   -1.4,   -1.3,   -1.3,   -1.3,   -1.2,   -0.9,   -0.7,   -0.7,   -0.7,   -0.9,   -1.1,   -1.3,   -1.5,   -1.4,   -1.3,   -1.0
2007/11/09 13:40,    5.2,    6.1,    6.3,    6.2,    5.9,    5.3,    4.1,    2.9,    2.3,    2.1,    1.6,    0.7,    0.5,    0.9,    1.4,    2.2,    2.0,    1.1,    1.2,    1.6,    2.2,    2.5,    2.2,    1.1,    0.2,    0.2,    0.1,   -0.3,   -0.2,    0.6,    0.6,    0.5,   -0.3,   -1.1,   -1.1,   -1.6,   -1.6,   -1.8,   -1.4,   -1.0,   -0.7,   -0.6,   -0.5,   -1.5,  999.0,  999.0,  999.0,  999.0,   -3.6,   -4.2,   -4.6,   -4.6,   -4.9,   -4.9,   -5.1,   -5.0,   -4.9,   -4.6,   -4.1,   -3.4,   -2.4,   -1.9,   -1.5,   -1.3,   -1.3,   -1.3,   -1.1,   -1.0,   -0.9,   -0.8,   -0.9,   -0.9,   -0.9,   -1.1,   -1.3,   -1.4,   -1.3,   -1.0,   -0.4
2007/11/09 13:50,    5.7,    6.6,    7.2,    6.5,    6.1,    6.0,    5.2,    4.2,    3.0,    2.2,    2.0,    0.6,   -0.4,   -0.3,    0.1,    0.6,    1.1,    0.7,   -0.2,   -0.8,   -0.5,    0.6,    1.0,    0.2,   -0.7,   -0.6,   -0.6,   -1.0,   -0.4,    0.2,    0.3,    0.2,   -0.2,   -1.0,   -1.2,   -2.1,   -1.8,   -1.7,   -1.3,   -0.7,   -0.9,   -0.6,   -1.3,   -2.5,  999.0,  999.0,  999.0,   -3.6,   -3.9,   -4.4,   -5.0,   -5.2,   -5.1,   -4.8,   -4.5,   -4.5,   -4.6,   -4.5,   -4.2,   -3.8,   -3.0,   -2.1,   -1.5,   -1.4,   -1.4,   -1.5,   -1.5,   -1.4,   -1.3,   -1.5,   -1.7,   -1.9,   -1.8,   -1.7,   -1.8,   -1.9,   -1.9,   -1.7,   -1.3
2007/11/09 14:00,    5.5,    6.5,    7.0,    6.3,    5.7,    5.9,    5.3,    4.0,    3.1,    2.5,    2.2,    1.1,    0.7,    1.6,    1.9,    1.6,    1.1,    0.6,    0.7,    0.8,    0.7,    1.5,    2.7,    2.6,    2.2,    2.0,    0.8,    1.1,    1.2,    1.2,    1.0,    0.6,   -0.1,   -0.3,   -0.6,   -1.0,   -0.7,   -0.2,    0.5,    1.0,    0.6,   -0.5,   -1.9,   -3.0,  999.0,  999.0,  999.0,  999.0,   -5.0,   -5.1,   -5.1,   -4.9,   -4.2,   -3.8,   -3.6,   -3.5,   -3.4,   -3.4,   -3.8,   -4.0,   -3.4,   -2.6,   -2.0,   -1.8,   -1.8,   -2.0,   -2.1,   -2.2,   -2.1,   -1.9,   -1.8,   -1.8,   -1.9,   -1.8,   -1.6,   -1.6,   -1.4,   -1.2,   -0.9
2007/11/09 14:10,  999.0,    7.1,    7.5,    6.6,    6.2,    6.6,    6.5,    4.6,    3.3,    3.2,    2.8,    2.0,    2.8,    3.1,    2.2,    1.4,    0.6,   -0.4,   -0.7,   -0.3,    0.3,    0.4,    1.5,    1.7,    1.5,    1.2,    0.5,    0.5,    1.4,    1.5,    1.3,    0.6,   -0.2,   -0.5,   -0.5,   -0.6,   -0.5,    0.0,    0.4,    0.7,    0.6,   -0.4,   -1.7,   -3.0,  999.0,  999.0,  999.0,   -4.8,   -4.7,   -4.5,   -4.3,   -3.9,   -3.8,   -3.7,   -3.6,   -3.1,   -3.0,   -3.0,   -3.3,   -3.8,   -3.8,   -2.8,   -1.7,   -1.2,   -1.1,   -1.6,   -2.1,   -2.4,   -2.4,   -2.3,   -2.4,   -2.5,   -2.4,   -2.0,   -1.9,   -1.9,   -1.7,   -1.5,   -1.5
2007/11/09 14:20,  999.0,    6.4,    7.3,    6.8,    5.9,    5.7,    5.7,    4.1,    2.3,    2.7,    2.2,    1.4,    2.5,    2.4,    1.2,    0.9,    0.6,    0.2,   -0.4,   -0.4,    0.0,    0.5,    1.0,    1.1,    1.4,    0.7,    0.4,    1.1,    1.8,    2.0,    1.2,    0.4,    0.4,    0.1,   -0.2,   -0.5,   -0.3,    0.1,    0.3,    0.0,    0.2,    0.3,   -0.8,   -2.2,  999.0,  999.0,  999.0,   -4.3,   -4.0,   -4.1,   -3.9,   -3.6,   -3.3,   -3.1,   -2.8,   -2.6,   -2.6,   -2.6,   -2.8,   -3.3,   -3.7,   -3.6,   -2.3,   -1.7,   -1.7,   -2.2,   -2.9,   -3.4,   -3.6,   -3.5,   -3.4,   -3.2,   -2.9,   -2.6,   -2.2,   -1.9,   -1.8,   -1.5,   -1.9
2007/11/09 14:30,  999.0,    5.8,    6.9,    6.5,    5.8,    5.3,    4.9,    3.9,    2.6,    2.7,    1.7,    1.7,    2.2,    1.5,    0.5,    0.3,   -0.2,   -0.8,   -1.3,   -1.3,   -0.9,   -0.4,   -0.1,    0.1,    0.1,   -0.7,   -0.3,    0.3,    0.7,    0.5,   -0.2,   -1.0,   -0.9,   -1.3,   -1.4,   -1.4,   -1.3,   -1.4,   -1.9,   -2.3,   -2.6,   -2.8,   -3.0,   -3.1,  999.0,  999.0,   -4.5,   -5.2,   -5.0,   -4.5,   -4.3,   -3.9,   -3.3,   -2.9,   -2.8,   -2.7,   -2.7,   -2.6,   -2.3,   -2.3,   -2.8,   -3.6,   -3.6,   -2.7,   -2.3,   -2.6,   -3.1,   -3.6,   -3.8,   -3.8,   -3.5,   -3.1,   -3.0,   -2.7,   -2.1,   -1.5,   -1.2,   -1.4,   -1.9
2007/11/09 14:40,    5.6,  999.0,  999.0,    8.2,    6.0,    5.8,  999.0,    3.7,    2.9,    2.5,    2.1,    2.4,    1.6,    0.3,   -0.2,   -1.0,   -1.3,   -2.1,   -2.2,   -2.3,   -1.9,   -1.8,   -1.7,   -1.3,   -1.1,   -2.1,   -2.3,   -1.7,   -1.2,   -1.0,   -1.1,   -2.1,   -2.5,   -2.5,   -2.4,   -2.6,   -2.4,   -2.8,   -3.4,   -4.0,   -4.3,   -3.6,   -4.3,   -3.1,  999.0,  999.0,   -4.9,   -5.1,   -5.2,   -5.2,   -5.2,   -4.6,   -4.2,   -4.0,   -3.7,   -3.4,   -3.3,   -3.3,   -2.8,   -2.5,   -2.6,   -3.1,   -3.7,   -3.4,   -2.7,   -2.9,   -3.2,   -3.5,   -3.6,   -3.3,   -3.0,   -2.8,   -2.4,   -2.1,   -2.1,   -1.9,   -1.7,   -1.8,   -2.2
2007/11/09 14:50,  999.0,  999.0,  999.0,  999.0,  999.0,  999.0,  999.0,    3.2,    2.6,    2.7,    2.8,    2.7,    2.0,    1.1,    0.2,   -0.6,  999.0,   -2.3,   -3.0,   -2.7,   -2.9,   -3.1,   -2.5,   -1.5,   -1.1,   -1.7,   -2.1,   -1.7,   -0.9,   -0.5,   -0.2,   -1.1,   -1.0,   -1.1,   -1.1,   -1.5,   -1.4,   -2.1,   -2.7,   -3.2,   -3.4,   -3.5,   -2.7,  999.0,  999.0,  999.0,   -5.3,   -5.5,   -5.4,   -5.4,   -5.5,   -5.5,   -5.4,   -5.3,   -5.3,   -4.8,   -4.2,   -3.9,   -3.6,   -3.2,   -3.0,   -3.3,   -3.9,   -3.7,   -2.8,   -3.0,   -3.1,   -3.3,   -3.6,   -3.4,   -2.8,   -2.2,   -1.9,   -2.0,   -2.1,   -2.3,   -2.1,   -2.2,   -2.5
2007/11/09 15:00,    4.2,    4.6,    5.5,    4.8,    4.6,    4.7,    3.1,    2.4,    2.7,    3.2,    3.1,    3.4,    2.6,    1.4,    0.5,   -0.5,   -0.9,   -1.3,   -2.0,   -1.9,   -2.0,   -2.0,   -1.2,   -0.4,   -0.1,   -0.5,   -1.0,   -0.5,    0.1,    0.4,    0.3,   -0.3,   -0.1,   -0.1,   -0.4,   -0.6,   -0.9,   -1.3,   -1.7,   -2.0,   -2.3,   -2.5,   -2.8,   -3.9,  999.0,  999.0,   -4.3,   -3.6,   -3.6,   -3.7,   -4.4,   -4.8,   -5.1,   -5.3,   -5.5,   -5.4,   -5.1,   -4.4,   -3.4,   -3.3,   -3.7,   -4.0,   -4.1,   -4.0,   -3.5,   -3.2,   -3.3,   -3.6,   -3.8,   -3.8,   -3.4,   -2.6,   -1.8,   -1.7,   -2.0,   -2.6,   -2.8,   -2.8,   -2.7
2007/11/09 15:10,    4.6,    4.7,    5.2,    4.3,    4.7,    4.8,    3.9,    2.8,    2.8,    3.3,    3.4,    3.8,    2.9,    1.5,    0.6,    0.0,   -0.5,   -0.6,   -1.5,   -1.6,   -1.7,   -1.6,   -1.0,   -0.4,   -0.2,   -0.5,   -0.7,   -0.4,    0.3,    0.8,    0.0,   -0.1,   -0.1,   -0.2,   -0.6,   -1.1,   -1.0,   -1.3,   -1.7,   -2.3,   -2.3,   -1.4,   -3.1,   -3.0,   -2.3,  999.0,  999.0,   -3.4,   -3.4,   -3.5,   -3.8,   -4.2,   -4.4,   -4.3,   -4.3,   -4.5,   -4.8,   -4.7,   -4.1,   -3.7,   -3.7,   -3.6,   -3.7,   -3.9,   -3.7,   -3.1,   -3.1,   -3.2,   -3.4,   -3.4,   -3.2,   -2.6,   -2.1,   -1.6,   -1.5,   -2.1,   -2.3,   -2.5,   -2.6
2007/11/09 15:20,    3.9,    4.8,    5.8,    4.5,    5.1,    5.6,    4.7,    3.1,    3.1,    3.3,    3.6,    4.2,    3.1,    1.6,    0.5,   -0.6,   -1.0,   -1.1,   -1.6,   -1.3,   -1.8,   -1.7,   -1.2,   -1.7,   -1.8,   -1.7,   -1.2,   -0.7,   -0.7,   -0.6,   -1.5,   -1.3,   -1.3,   -1.5,   -1.5,   -1.7,   -1.5,   -1.9,   -2.6,   -3.3,   -3.1,   -3.6,   -4.2,   -3.4,   -3.1,  999.0,  999.0,   -3.5,   -3.5,   -3.5,   -3.8,   -4.2,   -4.5,   -3.9,   -3.6,   -3.8,   -3.9,   -4.1,   -4.2,   -3.9,   -3.5,   -3.4,   -3.1,   -3.0,   -3.0,   -2.9,   -2.9,   -3.1,   -3.1,   -3.0,   -2.8,   -2.4,   -2.2,   -2.0,   -1.9,   -2.0,   -2.5,   -2.7,   -3.0
2007/11/09 15:30,    4.5,    4.7,    5.3,    4.4,    5.4,    5.6,    5.1,    3.5,    3.4,    4.2,    4.4,    4.2,    3.1,    1.8,    0.3,   -0.5,   -0.7,   -1.0,   -0.9,   -0.9,   -0.8,   -1.0,   -1.1,   -1.2,   -1.1,   -0.4,    0.2,    0.2,    0.3,   -0.2,   -0.5,   -0.3,   -0.5,   -0.4,   -0.6,   -0.5,   -0.6,   -1.2,   -2.4,   -2.9,   -3.3,   -3.7,   -3.9,   -3.3,   -3.0,  999.0,  999.0,   -4.5,   -4.4,   -4.1,   -4.1,   -4.5,   -4.8,   -5.1,   -4.6,   -4.2,   -4.0,   -4.2,   -4.3,   -4.5,   -4.6,   -4.2,   -3.9,   -3.4,   -3.4,   -3.3,   -3.1,   -3.2,   -3.1,   -3.0,   -2.7,   -2.5,   -2.4,   -2.3,   -2.2,   -2.3,   -2.5,   -2.7,   -3.2
2007/11/09 15:40,  999.0,    6.3,  999.0,    4.9,    5.5,    5.6,    6.4,    3.8,    3.7,    4.6,    4.2,    3.7,    2.5,    0.7,   -0.5,   -0.8,   -1.0,   -1.4,   -1.2,   -1.2,   -1.1,   -1.1,   -1.4,   -1.8,   -1.4,   -0.8,   -0.7,   -0.3,   -0.7,   -1.4,   -1.6,   -1.3,   -1.4,   -1.4,   -1.7,   -1.4,   -1.9,   -2.6,   -3.6,   -4.7,   -5.0,   -5.2,   -4.7,   -4.9,  999.0,  999.0,  999.0,   -4.9,   -4.9,   -4.6,   -4.4,   -4.7,   -5.0,   -5.2,   -5.2,   -5.2,   -4.7,   -4.1,   -4.2,   -4.7,   -5.1,   -5.1,   -5.0,   -4.6,   -4.3,   -4.3,   -4.2,   -3.9,   -3.7,   -3.5,   -3.3,   -2.8,   -2.2,   -2.1,   -1.8,   -1.9,   -2.1,   -2.5,   -2.9
2007/11/09 15:50,  999.0,  999.0,  999.0,    3.5,    5.5,    5.6,  999.0,    4.3,  999.0,    3.9,    4.1,    2.6,    1.9,    0.2,   -1.1,   -1.2,   -1.1,   -1.3,   -0.6,   -0.2,   -0.0,    0.4,    0.0,    0.0,    0.4,    0.8,    1.1,    1.5,    0.6,    0.4,    0.8,    0.9,    1.1,    1.4,    1.6,    1.2,    1.0,    0.3,   -1.0,   -1.4,   -1.4,   -1.1,   -0.4,   -1.5,  999.0,  999.0,  999.0,   -3.7,   -4.2,   -4.3,   -4.0,   -4.1,   -4.4,   -4.4,   -4.3,   -4.3,   -4.5,   -4.4,   -3.9,   -3.7,   -3.5,   -3.9,   -4.0,   -4.2,   -4.0,   -4.1,   -4.0,   -3.9,   -3.7,   -3.0,   -2.4,   -1.9,   -1.8,   -1.7,   -1.7,   -2.0,   -2.5,   -3.0,   -3.3
2007/11/09 16:00,    4.1,    4.6,    5.7,    5.7,    5.4,    5.9,    6.4,    5.4,    5.3,    5.1,    4.8,    3.8,    2.7,    1.1,    0.2,    0.3,    0.8,    0.4,    0.6,    0.7,    1.6,    1.4,    1.3,    1.4,    1.3,    1.8,    1.7,    0.9,    0.6,    0.7,    1.2,    1.4,    1.4,    1.2,    1.3,    0.7,   -0.1,   -1.1,   -1.8,   -1.7,   -1.7,   -1.3,   -1.5,   -2.1,   -2.6,  999.0,   -3.3,   -3.9,   -4.3,   -4.4,   -4.3,   -4.4,   -4.2,   -4.1,   -4.0,   -4.2,   -4.2,   -4.5,   -4.4,   -4.4,   -4.5,   -4.4,   -4.4,   -4.4,   -4.4,   -4.2,   -4.3,   -4.2,   -4.1,   -3.5,   -3.0,   -2.2,   -1.8,   -1.8,   -1.9,   -1.9,   -2.3,   -2.8,   -3.1
2007/11/09 16:10,    0.5,    0.3,    0.4,  999.0,    1.1,  999.0,  999.0,  999.0,  999.0,  999.0,  999.0,  999.0,  999.0,  999.0,    0.1,    0.1,    0.4,   -0.3,   -0.3,   -0.3,   -0.1,    0.1,   -0.0,   -0.5,   -0.4,    0.3,   -0.4,   -1.0,  999.0,  999.0,  999.0,  999.0,  999.0,  999.0,   -1.6,   -2.9,   -3.2,   -3.8,   -4.0,   -4.1,   -3.3,   -3.2,   -3.4,   -3.7,   -4.1,   -4.2,   -4.4,   -4.3,   -4.5,   -4.6,   -4.9,   -5.0,   -5.5,   -5.7,   -5.6,   -5.5,   -5.0,   -4.9,   -4.9,   -4.7,   -4.6,   -4.6,   -4.2,   -3.8,   -3.6,   -3.8,   -3.9,   -4.0,   -3.9,   -3.4,   -2.6,   -1.9,   -1.3,   -1.3,   -1.6,   -1.7,   -1.9,   -2.3,   -2.6
2007/11/09 16:20,  999.0,  999.0,  999.0,  999.0,  999.0,  999.0,  999.0,  999.0,  999.0,  999.0,    4.3,    3.6,    2.1,    0.5,   -0.1,   -0.4,    0.2,   -0.1,    0.5,    0.2,    0.5,    0.8,    0.8,    0.9,  999.0,  999.0,    1.2,    0.4,  999.0,  999.0,  999.0,    1.7,    1.4,    1.4,    1.5,    1.4,    0.7,   -0.3,   -0.3,    0.2,   -0.3,   -1.5,  999.0,   -2.1,   -3.4,  999.0,  999.0,  999.0,   -4.4,   -4.8,   -5.0,   -5.1,   -5.3,   -5.7,   -6.0,   -5.9,   -5.4,   -4.9,   -4.6,   -4.5,   -4.3,   -4.2,   -4.0,   -3.7,   -3.6,   -3.6,   -3.5,   -3.4,   -3.2,   -2.9,   -2.3,   -1.4,   -0.9,   -0.9,   -1.2,   -1.4,   -1.7,   -1.9,   -2.2
2007/11/09 16:30,  999.0,  999.0,  999.0,  999.0,  999.0,  999.0,  999.0,    5.4,    4.1,  999.0,  999.0,  999.0,  999.0,    0.8,    0.2,  999.0,    0.1,    0.2,  999.0,  999.0,  999.0,  999.0,  999.0,  999.0,  999.0,  999.0,    1.4,  999.0,   -0.8,   -0.2,   -0.3,   -0.5,   -0.8,   -1.2,   -0.7,   -1.2,   -1.9,   -2.3,   -1.8,   -1.6,   -2.7,   -3.8,   -4.3,   -4.3,   -4.3,   -4.0,   -3.9,   -4.5,   -4.7,   -4.8,   -4.6,   -4.5,   -4.7,   -5.4,   -6.2,   -6.1,   -6.0,   -5.8,   -5.5,   -5.1,   -4.7,   -4.5,   -4.1,   -4.0,   -3.6,   -3.4,   -3.1,   -2.8,   -2.6,   -2.4,   -1.9,   -1.3,   -1.0,   -1.0,   -1.4,   -1.7,   -1.9,   -2.3,   -2.5
2007/11/09 16:40,    1.1,    0.8,    0.1,    0.4,  999.0,    0.1,  999.0,    1.7,    4.0,    3.5,    3.3,    2.8,    2.3,    0.2,   -0.5,  999.0,   -0.7,   -0.7,   -0.9,   -1.0,   -1.3,   -1.1,   -0.8,   -0.3,   -0.2,  999.0,  999.0,  999.0,   -1.0,   -0.7,   -0.5,   -0.7,   -1.0,   -1.1,   -1.3,   -1.9,   -2.0,   -1.9,   -1.7,   -2.3,   -3.3,   -3.9,   -4.0,   -4.3,   -4.8,  999.0,   -4.0,   -4.1,   -4.3,   -4.2,   -4.3,   -4.3,   -4.5,   -4.9,   -5.1,   -5.8,   -6.4,   -6.7,   -6.6,   -5.7,   -5.1,   -4.5,   -3.9,   -3.9,   -3.8,   -3.3,   -2.7,   -2.1,   -2.0,   -1.9,   -1.6,   -1.6,   -1.5,   -1.7,   -1.8,   -2.0,   -2.3,   -2.6,   -2.7
2007/11/09 16:50,    1.8,    1.4,    0.2,    0.6,  999.0,  999.0,  999.0,  999.0,    4.2,    3.9,    3.6,    3.1,    2.0,    1.4,   -0.6,  999.0,   -0.9,   -1.4,   -1.1,   -1.1,   -1.4,  999.0,  999.0,   -3.4,  999.0,  999.0,   -0.2,   -0.9,   -0.5,   -0.5,   -0.1,   -0.4,   -0.7,   -0.7,   -0.8,   -1.1,   -1.0,   -1.2,   -1.6,   -2.1,   -3.1,   -3.6,   -3.8,   -3.3,   -3.5,  999.0,  999.0,   -4.3,   -4.5,   -4.4,   -4.8,   -5.1,   -5.9,   -6.1,   -5.9,   -6.4,   -6.9,   -6.9,   -6.3,   -5.3,   -4.6,   -4.4,   -4.3,   -4.3,   -4.2,   -3.6,   -2.7,   -2.1,   -2.2,   -2.3,   -1.9,   -2.0,   -1.9,   -2.3,   -2.4,   -2.3,   -2.2,   -2.4,   -2.6
2007/11/09 17:00,  999.0,  999.0,  999.0,    0.6,  999.0,  999.0,  999.0,  999.0,  999.0,  999.0,    1.9,  999.0,    2.5,    0.3,   -0.1,   -0.2,   -0.8,   -0.6,   -1.0,   -0.7,   -0.9,   -0.4,   -0.2,   -0.1,    0.1,    0.8,    0.6,    0.2,   -0.1,   -0.1,   -0.3,   -0.3,   -1.1,   -1.2,   -1.5,   -1.1,   -1.6,   -2.2,   -3.0,   -3.7,   -3.8,   -4.1,   -4.0,   -4.4,   -4.2,  999.0,  999.0,   -4.6,   -4.7,   -4.7,   -5.4,   -6.2,   -6.7,   -6.9,   -7.1,   -7.2,   -7.1,   -6.7,   -5.9,   -5.0,   -4.5,   -4.4,   -4.6,   -4.6,   -4.2,   -3.5,   -2.6,   -2.0,   -1.8,   -1.9,   -1.7,   -1.7,   -2.0,   -2.1,   -2.5,   -2.2,   -2.1,   -2.2,   -2.3
2007/11/09 17:10,  999.0,    1.3,  999.0,   -0.1,  999.0,  999.0,  999.0,    3.6,    3.7,    2.7,    0.9,    0.3,    1.8,    0.4,   -0.7,   -1.4,   -1.6,   -1.3,   -1.2,   -1.6,   -1.4,   -1.0,   -0.8,   -0.8,   -0.1,    0.6,    0.6,    0.1,    0.3,    0.6,    0.7,    0.4,    0.4,    0.3,    0.5,    0.4,   -0.3,   -1.0,   -1.6,   -1.8,   -2.1,   -2.5,   -2.8,   -3.4,   -3.8,   -4.0,   -4.5,   -4.9,   -5.0,   -5.4,   -6.2,   -6.8,   -7.2,   -7.1,   -6.9,   -6.7,   -6.5,   -6.3,   -6.2,   -5.8,   -5.1,   -4.9,   -4.8,   -4.5,   -3.9,   -3.4,   -2.7,   -2.1,   -1.8,   -1.8,   -1.7,   -1.7,   -1.9,   -2.2,   -2.6,   -2.5,   -2.0,   -2.3,   -2.6
2007/11/09 17:20,    1.0,    0.9,    0.2,    0.2,  999.0,    1.0,  999.0,    0.5,    2.4,    2.9,  999.0,  999.0,  999.0,  999.0,  999.0,  999.0,  999.0,  999.0,  999.0,  999.0,  999.0,  999.0,   -0.2,    0.0,    0.5,    1.4,    1.4,    0.9,    0.9,    1.1,    1.3,    1.0,    0.9,    0.8,    0.8,    0.8,    0.2,   -0.7,   -1.2,   -1.7,   -2.4,   -2.8,   -3.5,   -3.9,   -4.2,   -4.3,   -4.8,   -5.5,   -6.0,   -6.6,   -6.5,   -6.7,   -6.7,   -6.6,   -6.5,   -6.3,   -6.4,   -6.4,   -6.5,   -6.4,   -5.9,   -5.4,   -4.8,   -4.4,   -4.2,   -3.5,   -3.2,   -2.6,   -2.0,   -1.9,   -1.7,   -1.6,   -1.9,   -2.2,   -2.3,   -2.2,  999.0,   -2.3,  999.0
2007/11/09 17:30,    0.9,    0.3,    0.1,    0.3,    0.8,    0.4,  999.0,    0.7,  999.0,    2.6,    3.2,    2.6,    1.6,    0.4,   -0.2,   -1.4,   -0.8,   -0.7,   -1.1,   -1.9,   -1.2,  999.0,  999.0,  999.0,  999.0,  999.0,    0.8,    0.6,    0.4,    0.9,    0.7,    0.5,    0.6,    0.5,    0.8,    0.4,   -0.5,   -1.3,   -1.9,   -2.6,   -3.2,   -3.9,   -4.3,   -4.6,   -4.9,   -4.6,   -4.5,   -5.6,   -6.5,   -6.7,   -6.5,   -6.6,   -6.6,   -6.5,   -6.4,   -6.2,   -6.3,   -6.4,   -6.5,   -6.4,   -6.1,   -5.8,   -4.7,   -4.3,   -4.4,   -3.8,   -3.4,   -2.7,  999.0,  999.0,  999.0,   -1.2,   -1.8,   -2.0,   -2.0,   -2.1,   -1.9,  999.0,   -2.4
2007/11/09 17:40,    0.4,    0.3,    0.1,    0.1,    0.7,    0.2,    0.3,    0.8,    0.4,    1.8,    3.1,    2.8,    1.4,    0.2,   -0.4,   -0.0,   -0.6,   -0.8,   -1.6,   -1.1,   -0.1,    0.1,   -0.1,    0.1,  999.0,  999.0,    0.1,    0.0,    0.2,  999.0,  999.0,    1.2,    1.2,    0.6,    1.0,    0.3,   -0.7,   -1.4,   -2.0,   -2.5,   -3.0,   -3.3,   -3.6,   -3.8,   -4.3,   -4.2,   -4.5,   -5.5,   -5.8,   -5.6,   -5.6,   -6.1,   -6.1,   -6.5,   -6.6,   -6.8,   -6.7,   -6.5,   -6.4,   -6.4,   -5.8,   -5.4,   -5.4,   -4.6,   -4.3,   -4.3,   -3.6,   -2.9,   -2.0,   -1.3,   -1.0,   -0.7,   -1.1,   -1.5,   -1.5,   -1.6,   -1.6,   -2.0,   -2.3
2007/11/09 17:50,    0.6,    0.2,    0.3,    1.0,    1.0,    0.3,  999.0,    1.3,    1.1,    2.0,    3.0,    3.3,    2.6,    0.6,    0.1,    0.1,   -0.7,   -0.8,   -1.3,   -0.6,   -0.1,    0.1,    0.1,   -0.0,    0.3,    0.3,    0.2,    0.1,    0.1,    0.4,    0.2,   -0.1,  999.0,   -0.1,  999.0,  999.0,  999.0,  999.0,  999.0,   -2.0,  999.0,  999.0,  999.0,  999.0,  999.0,  999.0,  999.0,  999.0,  999.0,  999.0,  999.0,  999.0,  999.0,   -6.2,   -6.4,   -6.4,   -6.1,   -5.8,   -5.8,   -5.9,   -5.6,   -4.8,   -4.7,   -4.7,   -4.4,   -4.2,   -3.8,   -3.2,   -2.8,   -2.3,   -1.6,   -1.1,   -1.4,   -1.8,   -2.1,   -2.1,   -2.1,   -2.1,   -2.5
2007/11/09 18:00,    0.6,    0.3,    0.8,    2.0,    2.9,    0.7,  999.0,    0.6,    2.2,    1.9,    3.0,    3.1,    2.4,    1.4,    0.5,    1.2,    0.3,   -0.2,   -1.2,   -0.6,   -0.1,    0.0,    0.2,    0.3,    0.7,    0.4,    0.1,    0.1,   -0.0,    0.1,   -0.4,   -0.4,  999.0,   -0.6,  999.0,  999.0,  999.0,  999.0,  999.0,  999.0,  999.0,  999.0,  999.0,  999.0,  999.0,  999.0,  999.0,  999.0,  999.0,  999.0,  999.0,   -5.7,   -6.0,   -6.1,   -6.1,   -6.4,   -5.7,   -5.4,   -5.5,   -5.6,   -5.7,   -5.5,   -5.2,   -4.7,   -4.4,   -4.2,   -4.1,   -3.9,   -3.5,   -3.1,   -2.5,   -1.4,   -1.7,   -1.9,   -2.1,   -1.9,   -1.9,   -2.0,   -2.4
2007/11/09 18:10,    0.6,    0.6,    0.5,    1.5,  999.0,    2.0,  999.0,    1.3,    3.3,    3.9,  999.0,    3.8,    3.1,    2.1,    1.2,    1.4,    0.5,    0.2,   -0.6,   -0.4,    0.3,    0.8,    1.4,    1.3,    1.0,    1.0,    0.3,   -0.0,    0.1,   -0.0,   -0.8,  999.0,   -0.8,   -0.2,  999.0,  999.0,  999.0,  999.0,  999.0,  999.0,  999.0,  999.0,  999.0,  999.0,  999.0,  999.0,  999.0,   -4.3,  999.0,   -5.3,   -5.2,   -5.4,   -5.6,   -5.6,   -5.7,   -6.0,   -5.4,   -5.0,   -5.1,   -5.3,   -5.5,   -5.6,   -5.5,   -5.1,   -5.0,   -4.9,   -4.8,   -5.0,   -5.0,   -4.6,   -3.9,   -2.2,   -1.7,   -1.9,   -2.2,   -2.1,   -2.1,   -2.2,   -2.4
